Observation data for Lake McClellan 2NW on 11/14/2019      Previous  Date       Current Mesonet Observations  Soil Data  Daily Summary Page  Observations in Plain Language
KMC5 140600Z 01012KT 03/M06 A3013 RMK A01 T00291055  RH  054%=      5-min Rain = 0
KMC5 140601Z 01012KT 03/M06 A3013 RMK A01 T00291055  RH  054%=      5-min Rain = 0
KMC5 140602Z 01012KT 03/M06 A3013 RMK A01 T00291055  RH  054%=      5-min Rain = 0
KMC5 140603Z 01012KT 03/M06 A3013 RMK A01 T00291055  RH  054%=      5-min Rain = 0
KMC5 140604Z 01012KT 03/M06 A3014 RMK A01 T00291055  RH  054%=      5-min Rain = 0
KMC5 140605Z 01012KT 03/M06 A3014 RMK A01 T00291055  RH  054%=      5-min Rain = 0
KMC5 140606Z 00012KT 03/M06 A3014 RMK A01 T00291055  RH  054%=      5-min Rain = 0
KMC5 140607Z 00012KT 03/M06 A3014 RMK A01 T00291055  RH  054%=      5-min Rain = 0
KMC5 140608Z 00012KT 03/M06 A3014 RMK A01 T00291055  RH  054%=      5-min Rain = 0
KMC5 140609Z 36012KT 03/M06 A3014 RMK A01 T00291055  RH  054%=      5-min Rain = 0
KMC5 140610Z 00013KT 03/M06 A3014 RMK A01 T00281056  RH  054%=      5-min Rain = 0
KMC5 140611Z 00013KT 03/M06 A3014 RMK A01 T00291056  RH  054%=      5-min Rain = 0
KMC5 140612Z 00013KT 03/M06 A3014 RMK A01 T00281056  RH  054%=      5-min Rain = 0
KMC5 140613Z 01012KT 03/M06 A3014 RMK A01 T00291056  RH  054%=      5-min Rain = 0
KMC5 140614Z 01012KT 03/M06 A3014 RMK A01 T00291056  RH  053%=      5-min Rain = 0
KMC5 140615Z 00013KT 03/M06 A3014 RMK A01 T00291056  RH  053%=      5-min Rain = 0
KMC5 140616Z 00013KT 03/M06 A3014 RMK A01 T00301056  RH  053%=      5-min Rain = 0
KMC5 140617Z 00012KT 03/M06 A3014 RMK A01 T00301056  RH  053%=      5-min Rain = 0
KMC5 140618Z 00012KT 03/M06 A3014 RMK A01 T00301056  RH  053%=      5-min Rain = 0
KMC5 140619Z 00013KT 03/M06 A3014 RMK A01 T00301056  RH  053%=      5-min Rain = 0
KMC5 140620Z 00013KT 03/M06 A3014 RMK A01 T00301056  RH  053%=      5-min Rain = 0
KMC5 140621Z 00013KT 03/M06 A3014 RMK A01 T00301056  RH  053%=      5-min Rain = 0
KMC5 140622Z 00012KT 03/M06 A3014 RMK A01 T00311056  RH  053%=      5-min Rain = 0
KMC5 140623Z 00014KT 03/M06 A3014 RMK A01 T00301056  RH  053%=      5-min Rain = 0
KMC5 140624Z 00013KT 03/M06 A3014 RMK A01 T00301056  RH  053%=      5-min Rain = 0
KMC5 140625Z 00012KT 03/M06 A3014 RMK A01 T00301055  RH  053%=      5-min Rain = 0
KMC5 140626Z 00013KT 03/M06 A3014 RMK A01 T00301055  RH  054%=      5-min Rain = 0
KMC5 140627Z 00014KT 03/M06 A3014 RMK A01 T00301055  RH  054%=      5-min Rain = 0
KMC5 140628Z 00013KT 03/M05 A3014 RMK A01 T00311054  RH  054%=      5-min Rain = 0
KMC5 140629Z 00014KT 03/M05 A3014 RMK A01 T00311054  RH  054%=      5-min Rain = 0
KMC5 140630Z 00014KT 03/M05 A3014 RMK A01 T00321053  RH  054%=      5-min Rain = 0
KMC5 140631Z 01013KT 03/M05 A3014 RMK A01 T00311053  RH  054%=      5-min Rain = 0
KMC5 140632Z 00014KT 03/M05 A3014 RMK A01 T00311053  RH  054%=      5-min Rain = 0
KMC5 140633Z 00014KT 03/M05 A3014 RMK A01 T00321052  RH  054%=      5-min Rain = 0
KMC5 140634Z 00013KT 03/M05 A3014 RMK A01 T00321052  RH  054%=      5-min Rain = 0
KMC5 140635Z 01014KT 03/M05 A3014 RMK A01 T00321052  RH  054%=      5-min Rain = 0
KMC5 140636Z 00013KT 03/M05 A3015 RMK A01 T00331051  RH  054%=      5-min Rain = 0
KMC5 140637Z 00013KT 03/M05 A3015 RMK A01 T00321051  RH  055%=      5-min Rain = 0
KMC5 140638Z 01013KT 03/M05 A3015 RMK A01 T00321051  RH  055%=      5-min Rain = 0
KMC5 140639Z 01014KT 03/M05 A3015 RMK A01 T00321051  RH  055%=      5-min Rain = 0
KMC5 140640Z 01014KT 03/M05 A3015 RMK A01 T00321050  RH  055%=      5-min Rain = 0
KMC5 140641Z 00013KT 03/M05 A3015 RMK A01 T00321050  RH  055%=      5-min Rain = 0
KMC5 140642Z 01013KT 03/M05 A3015 RMK A01 T00321050  RH  055%=      5-min Rain = 0
KMC5 140643Z 01014KT 03/M05 A3015 RMK A01 T00321049  RH  055%=      5-min Rain = 0
KMC5 140644Z 01014KT 03/M05 A3015 RMK A01 T00331049  RH  055%=      5-min Rain = 0
KMC5 140645Z 01014KT 03/M05 A3015 RMK A01 T00341048  RH  055%=      5-min Rain = 0
KMC5 140646Z 01014KT 03/M05 A3015 RMK A01 T00341048  RH  055%=      5-min Rain = 0
KMC5 140647Z 01014KT 03/M05 A3015 RMK A01 T00341048  RH  055%=      5-min Rain = 0
KMC5 140648Z 01014KT 03/M05 A3015 RMK A01 T00341047  RH  055%=      5-min Rain = 0
KMC5 140649Z 01014KT 04/M05 A3015 RMK A01 T00351046  RH  055%=      5-min Rain = 0
KMC5 140650Z 01014KT 04/M05 A3015 RMK A01 T00351046  RH  055%=      5-min Rain = 0
KMC5 140651Z 01013KT 04/M05 A3015 RMK A01 T00351046  RH  055%=      5-min Rain = 0
KMC5 140652Z 01013KT 04/M05 A3015 RMK A01 T00361045  RH  055%=      5-min Rain = 0
KMC5 140653Z 01013KT 04/M05 A3015 RMK A01 T00361045  RH  055%=      5-min Rain = 0
KMC5 140654Z 01014KT 04/M05 A3015 RMK A01 T00361045  RH  056%=      5-min Rain = 0
KMC5 140655Z 01014KT 04/M05 A3015 RMK A01 T00351045  RH  056%=      5-min Rain = 0
KMC5 140656Z 01014KT 04/M05 A3015 RMK A01 T00361045  RH  056%=      5-min Rain = 0
KMC5 140657Z 01014KT 04/M04 A3016 RMK A01 T00351044  RH  056%=      5-min Rain = 0
KMC5 140658Z 01014KT 04/M04 A3016 RMK A01 T00361044  RH  056%=      5-min Rain = 0
KMC5 140659Z 01013KT 04/M04 A3016 RMK A01 T00361044  RH  056%=      5-min Rain = 0
KMC5 140700Z 00012KT 04/M05 A3016 RMK A01 T00351045  RH  056%=      5-min Rain = 0
KMC5 140701Z 01013KT 03/M05 A3016 RMK A01 T00341045  RH  056%=      5-min Rain = 0
KMC5 140702Z 00013KT 03/M05 A3016 RMK A01 T00331045  RH  057%=      5-min Rain = 0
KMC5 140703Z 00014KT 03/M05 A3016 RMK A01 T00331045  RH  057%=      5-min Rain = 0
KMC5 140704Z 01014KT 03/M05 A3016 RMK A01 T00321045  RH  057%=      5-min Rain = 0
KMC5 140705Z 01014KT 03/M05 A3016 RMK A01 T00321045  RH  057%=      5-min Rain = 0
KMC5 140706Z 01014KT 03/M05 A3016 RMK A01 T00321045  RH  057%=      5-min Rain = 0
KMC5 140707Z 01013KT 03/M05 A3016 RMK A01 T00321045  RH  057%=      5-min Rain = 0
KMC5 140708Z 01015KT 03/M04 A3016 RMK A01 T00331044  RH  057%=      5-min Rain = 0
KMC5 140709Z 01014KT 03/M04 A3016 RMK A01 T00341044  RH  057%=      5-min Rain = 0
KMC5 140710Z 01015KT 03/M04 A3016 RMK A01 T00341044  RH  057%=      5-min Rain = 0
KMC5 140711Z 01015KT 03/M04 A3016 RMK A01 T00341044  RH  057%=      5-min Rain = 0
KMC5 140712Z 01014KT 04/M04 A3016 RMK A01 T00351044  RH  056%=      5-min Rain = 0
KMC5 140713Z 01014KT 04/M04 A3016 RMK A01 T00351044  RH  056%=      5-min Rain = 0
KMC5 140714Z 01014KT 04/M05 A3016 RMK A01 T00351045  RH  056%=      5-min Rain = 0
KMC5 140715Z 00014KT 04/M05 A3016 RMK A01 T00351045  RH  056%=      5-min Rain = 0
KMC5 140716Z 01014KT 04/M05 A3017 RMK A01 T00351045  RH  056%=      5-min Rain = 0
KMC5 140717Z 00013KT 04/M04 A3017 RMK A01 T00351044  RH  056%=      5-min Rain = 0
KMC5 140718Z 00013KT 04/M05 A3017 RMK A01 T00351045  RH  056%=      5-min Rain = 0
KMC5 140719Z 01013KT 03/M05 A3017 RMK A01 T00341045  RH  056%=      5-min Rain = 0
KMC5 140720Z 00013KT 03/M05 A3017 RMK A01 T00341045  RH  056%=      5-min Rain = 0
KMC5 140721Z 00013KT 03/M05 A3017 RMK A01 T00331045  RH  056%=      5-min Rain = 0
KMC5 140722Z 00014KT 03/M05 A3017 RMK A01 T00331045  RH  057%=      5-min Rain = 0
KMC5 140723Z 00014KT 03/M05 A3016 RMK A01 T00331045  RH  057%=      5-min Rain = 0
KMC5 140724Z 01014KT 03/M05 A3016 RMK A01 T00331045  RH  057%=      5-min Rain = 0
KMC5 140725Z 01013KT 03/M05 A3016 RMK A01 T00331045  RH  056%=      5-min Rain = 0
KMC5 140726Z 00014KT 03/M05 A3017 RMK A01 T00341045  RH  056%=      5-min Rain = 0
KMC5 140727Z 01013KT 03/M05 A3017 RMK A01 T00341045  RH  056%=      5-min Rain = 0
KMC5 140728Z 00013KT 03/M05 A3017 RMK A01 T00341045  RH  056%=      5-min Rain = 0
KMC5 140729Z 00012KT 03/M05 A3017 RMK A01 T00341045  RH  056%=      5-min Rain = 0
KMC5 140730Z 00013KT 03/M05 A3017 RMK A01 T00341045  RH  056%=      5-min Rain = 0
KMC5 140731Z 00013KT 03/M05 A3017 RMK A01 T00331045  RH  057%=      5-min Rain = 0
KMC5 140732Z 36013KT 03/M04 A3017 RMK A01 T00331044  RH  057%=      5-min Rain = 0
KMC5 140733Z 00013KT 03/M05 A3017 RMK A01 T00331045  RH  057%=      5-min Rain = 0
KMC5 140734Z 36013KT 03/M05 A3017 RMK A01 T00331045  RH  057%=      5-min Rain = 0
KMC5 140735Z 36013KT 03/M05 A3017 RMK A01 T00331045  RH  057%=      5-min Rain = 0
KMC5 140736Z 36013KT 03/M04 A3017 RMK A01 T00341044  RH  057%=      5-min Rain = 0
KMC5 140737Z 00013KT 03/M04 A3017 RMK A01 T00341044  RH  057%=      5-min Rain = 0
KMC5 140738Z 36013KT 03/M04 A3017 RMK A01 T00341044  RH  057%=      5-min Rain = 0
KMC5 140739Z 00013KT 03/M04 A3017 RMK A01 T00331044  RH  057%=      5-min Rain = 0
KMC5 140740Z 36013KT 03/M04 A3017 RMK A01 T00331044  RH  057%=      5-min Rain = 0
KMC5 140741Z 00013KT 03/M04 A3017 RMK A01 T00331044  RH  057%=      5-min Rain = 0
KMC5 140742Z 36012KT 03/M04 A3017 RMK A01 T00331044  RH  057%=      5-min Rain = 0
KMC5 140743Z 00013KT 03/M04 A3017 RMK A01 T00331044  RH  057%=      5-min Rain = 0
KMC5 140744Z 00012KT 03/M04 A3018 RMK A01 T00321044  RH  057%=      5-min Rain = 0
KMC5 140745Z 00011KT 03/M05 A3018 RMK A01 T00321045  RH  057%=      5-min Rain = 0
KMC5 140746Z 36012KT 03/M05 A3018 RMK A01 T00321045  RH  057%=      5-min Rain = 0
KMC5 140747Z 00012KT 03/M05 A3018 RMK A01 T00321045  RH  057%=      5-min Rain = 0
KMC5 140748Z 36012KT 03/M05 A3018 RMK A01 T00321045  RH  057%=      5-min Rain = 0
KMC5 140749Z 36013KT 03/M05 A3018 RMK A01 T00331045  RH  057%=      5-min Rain = 0
KMC5 140750Z 36013KT 03/M05 A3018 RMK A01 T00321045  RH  057%=      5-min Rain = 0
KMC5 140751Z 36013KT 03/M05 A3018 RMK A01 T00321045  RH  057%=      5-min Rain = 0
KMC5 140752Z 36013KT 03/M05 A3018 RMK A01 T00321045  RH  057%=      5-min Rain = 0
KMC5 140753Z 36013KT 03/M05 A3018 RMK A01 T00321046  RH  057%=      5-min Rain = 0
KMC5 140754Z 36013KT 03/M05 A3018 RMK A01 T00321046  RH  057%=      5-min Rain = 0
KMC5 140755Z 00013KT 03/M05 A3018 RMK A01 T00311046  RH  057%=      5-min Rain = 0
KMC5 140756Z 36012KT 03/M05 A3018 RMK A01 T00311047  RH  057%=      5-min Rain = 0
KMC5 140757Z 00012KT 03/M05 A3018 RMK A01 T00311047  RH  056%=      5-min Rain = 0
KMC5 140758Z 36013KT 03/M05 A3018 RMK A01 T00311047  RH  056%=      5-min Rain = 0
KMC5 140759Z 00013KT 03/M05 A3019 RMK A01 T00301048  RH  057%=      5-min Rain = 0
KMC5 140800Z 36013KT 03/M05 A3019 RMK A01 T00301048  RH  057%=      5-min Rain = 0
KMC5 140801Z 36013KT 03/M05 A3019 RMK A01 T00301048  RH  057%=      5-min Rain = 0
KMC5 140802Z 36013KT 03/M05 A3019 RMK A01 T00301048  RH  056%=      5-min Rain = 0
KMC5 140803Z 00013KT 03/M05 A3019 RMK A01 T00301048  RH  056%=      5-min Rain = 0
KMC5 140804Z 36014KT 03/M05 A3019 RMK A01 T00291048  RH  057%=      5-min Rain = 0
KMC5 140805Z 36014KT 03/M05 A3019 RMK A01 T00301048  RH  057%=      5-min Rain = 0
KMC5 140806Z 00014KT 03/M05 A3019 RMK A01 T00301049  RH  056%=      5-min Rain = 0
KMC5 140807Z 36013KT 03/M05 A3019 RMK A01 T00301049  RH  056%=      5-min Rain = 0
KMC5 140808Z 00013KT 03/M05 A3019 RMK A01 T00301049  RH  056%=      5-min Rain = 0
KMC5 140809Z 36014KT 03/M05 A3019 RMK A01 T00291049  RH  056%=      5-min Rain = 0
KMC5 140810Z 36013KT 03/M05 A3019 RMK A01 T00291049  RH  056%=      5-min Rain = 0
KMC5 140811Z 00013KT 03/M05 A3019 RMK A01 T00281049  RH  057%=      5-min Rain = 0
KMC5 140812Z 36014KT 03/M05 A3019 RMK A01 T00281049  RH  057%=      5-min Rain = 0
KMC5 140813Z 36013KT 03/M05 A3019 RMK A01 T00281050  RH  057%=      5-min Rain = 0
KMC5 140814Z 36014KT 03/M05 A3019 RMK A01 T00281049  RH  057%=      5-min Rain = 0
KMC5 140815Z 00013KT 03/M05 A3019 RMK A01 T00291049  RH  056%=      5-min Rain = 0
KMC5 140816Z 36013KT 03/M05 A3019 RMK A01 T00291050  RH  056%=      5-min Rain = 0
KMC5 140817Z 36013KT 03/M05 A3019 RMK A01 T00291049  RH  056%=      5-min Rain = 0
KMC5 140818Z 00012KT 03/M05 A3019 RMK A01 T00281049  RH  057%=      5-min Rain = 0
KMC5 140819Z 36013KT 03/M05 A3019 RMK A01 T00271050  RH  057%=      5-min Rain = 0
KMC5 140820Z 36013KT 03/M05 A3019 RMK A01 T00261050  RH  057%=      5-min Rain = 0
KMC5 140821Z 36014KT 03/M05 A3019 RMK A01 T00251050  RH  057%=      5-min Rain = 0
KMC5 140822Z 36014KT 03/M05 A3019 RMK A01 T00251050  RH  057%=      5-min Rain = 0
KMC5 140823Z 36013KT 03/M05 A3019 RMK A01 T00261050  RH  057%=      5-min Rain = 0
KMC5 140824Z 36013KT 03/M05 A3019 RMK A01 T00261050  RH  058%=      5-min Rain = 0
KMC5 140825Z 36014KT 03/M05 A3019 RMK A01 T00251050  RH  058%=      5-min Rain = 0
KMC5 140826Z 35014KT 03/M05 A3019 RMK A01 T00251050  RH  058%=      5-min Rain = 0
KMC5 140827Z 36015KT 03/M05 A3019 RMK A01 T00251050  RH  058%=      5-min Rain = 0
KMC5 140828Z 36015KT 03/M05 A3019 RMK A01 T00251050  RH  058%=      5-min Rain = 0
KMC5 140829Z 36014KT 03/M05 A3019 RMK A01 T00251049  RH  058%=      5-min Rain = 0
KMC5 140830Z 36015KT 02/M05 A3019 RMK A01 T00241049  RH  058%=      5-min Rain = 0
KMC5 140831Z 00015KT 02/M05 A3019 RMK A01 T00241049  RH  059%=      5-min Rain = 0
KMC5 140832Z 00015KT 02/M05 A3019 RMK A01 T00241048  RH  059%=      5-min Rain = 0
KMC5 140833Z 00014KT 02/M05 A3019 RMK A01 T00241049  RH  059%=      5-min Rain = 0
KMC5 140834Z 36014KT 02/M05 A3019 RMK A01 T00241048  RH  059%=      5-min Rain = 0
KMC5 140835Z 36014KT 02/M05 A3019 RMK A01 T00231048  RH  059%=      5-min Rain = 0
KMC5 140836Z 36014KT 02/M05 A3019 RMK A01 T00231048  RH  059%=      5-min Rain = 0
KMC5 140837Z 36015KT 02/M05 A3019 RMK A01 T00231047  RH  060%=      5-min Rain = 0
KMC5 140838Z 00015KT 02/M05 A3019 RMK A01 T00231047  RH  060%=      5-min Rain = 0
KMC5 140839Z 36015KT 02/M05 A3019 RMK A01 T00231047  RH  060%=      5-min Rain = 0
KMC5 140840Z 00014KT 02/M05 A3019 RMK A01 T00231047  RH  060%=      5-min Rain = 0
KMC5 140841Z 36014KT 02/M05 A3019 RMK A01 T00231046  RH  060%=      5-min Rain = 0
KMC5 140842Z 00014KT 02/M05 A3019 RMK A01 T00231045  RH  060%=      5-min Rain = 0
KMC5 140843Z 00014KT 02/M05 A3019 RMK A01 T00231045  RH  061%=      5-min Rain = 0
KMC5 140844Z 36015KT 02/M05 A3019 RMK A01 T00231045  RH  061%=      5-min Rain = 0
KMC5 140845Z 00014KT 02/M04 A3019 RMK A01 T00231044  RH  061%=      5-min Rain = 0
KMC5 140846Z 00014KT 02/M04 A3019 RMK A01 T00231043  RH  061%=      5-min Rain = 0
KMC5 140847Z 36015KT 02/M04 A3019 RMK A01 T00241043  RH  062%=      5-min Rain = 0
KMC5 140848Z 00014KT 02/M04 A3019 RMK A01 T00241042  RH  062%=      5-min Rain = 0
KMC5 140849Z 36014KT 02/M04 A3019 RMK A01 T00241042  RH  062%=      5-min Rain = 0
KMC5 140850Z 00013KT 02/M04 A3019 RMK A01 T00231042  RH  062%=      5-min Rain = 0
KMC5 140851Z 36013KT 02/M04 A302 RMK A01 T00231042  RH  062%=      5-min Rain = 0
KMC5 140852Z 01014KT 02/M04 A302 RMK A01 T00231042  RH  062%=      5-min Rain = 0
KMC5 140853Z 00014KT 02/M04 A302 RMK A01 T00231041  RH  063%=      5-min Rain = 0
KMC5 140854Z 00014KT 02/M04 A302 RMK A01 T00231042  RH  062%=      5-min Rain = 0
KMC5 140855Z 00013KT 02/M04 A302 RMK A01 T00231042  RH  062%=      5-min Rain = 0
KMC5 140856Z 36013KT 02/M04 A302 RMK A01 T00221042  RH  063%=      5-min Rain = 0
KMC5 140857Z 00013KT 02/M04 A302 RMK A01 T00221041  RH  063%=      5-min Rain = 0
KMC5 140858Z 00013KT 02/M04 A302 RMK A01 T00221041  RH  063%=      5-min Rain = 0
KMC5 140859Z 00014KT 02/M04 A302 RMK A01 T00221041  RH  063%=      5-min Rain = 0
KMC5 140900Z 00013KT 02/M04 A302 RMK A01 T00221040  RH  063%=      5-min Rain = 0
KMC5 140901Z 00014KT 02/M04 A302 RMK A01 T00221040  RH  063%=      5-min Rain = 0
KMC5 140902Z 00014KT 02/M04 A302 RMK A01 T00221040  RH  064%=      5-min Rain = 0
KMC5 140903Z 00014KT 02/M04 A302 RMK A01 T00221040  RH  064%=      5-min Rain = 0
KMC5 140904Z 00013KT 02/M04 A302 RMK A01 T00221039  RH  064%=      5-min Rain = 0
KMC5 140905Z 00013KT 02/M04 A302 RMK A01 T00221039  RH  064%=      5-min Rain = 0
KMC5 140906Z 00013KT 02/M04 A302 RMK A01 T00211039  RH  064%=      5-min Rain = 0
KMC5 140907Z 00013KT 02/M04 A302 RMK A01 T00221039  RH  064%=      5-min Rain = 0
KMC5 140908Z 36013KT 02/M04 A302 RMK A01 T00221038  RH  064%=      5-min Rain = 0
KMC5 140909Z 00013KT 02/M04 A302 RMK A01 T00221038  RH  065%=      5-min Rain = 0
KMC5 140910Z 00011KT 02/M04 A302 RMK A01 T00231037  RH  065%=      5-min Rain = 0
KMC5 140911Z 00012KT 02/M04 A302 RMK A01 T00221038  RH  064%=      5-min Rain = 0
KMC5 140912Z 00012KT 02/M04 A302 RMK A01 T00211038  RH  065%=      5-min Rain = 0
KMC5 140913Z 00013KT 02/M04 A302 RMK A01 T00201038  RH  065%=      5-min Rain = 0
KMC5 140914Z 00013KT 02/M04 A302 RMK A01 T00201038  RH  065%=      5-min Rain = 0
KMC5 140915Z 36013KT 02/M04 A302 RMK A01 T00201037  RH  066%=      5-min Rain = 0
KMC5 140916Z 00013KT 02/M04 A3021 RMK A01 T00211036  RH  065%=      5-min Rain = 0
KMC5 140917Z 00013KT 02/M04 A3021 RMK A01 T00211037  RH  065%=      5-min Rain = 0
KMC5 140918Z 00013KT 02/M04 A3021 RMK A01 T00221036  RH  066%=      5-min Rain = 0
KMC5 140919Z 00013KT 02/M04 A3021 RMK A01 T00221036  RH  066%=      5-min Rain = 0
KMC5 140920Z 00014KT 02/M04 A3021 RMK A01 T00211036  RH  066%=      5-min Rain = 0
KMC5 140921Z 00013KT 02/M04 A3021 RMK A01 T00221036  RH  066%=      5-min Rain = 0
KMC5 140922Z 36014KT 02/M04 A302 RMK A01 T00211036  RH  066%=      5-min Rain = 0
KMC5 140923Z 01014KT 02/M04 A3021 RMK A01 T00211036  RH  066%=      5-min Rain = 0
KMC5 140924Z 00013KT 02/M04 A3021 RMK A01 T00211036  RH  066%=      5-min Rain = 0
KMC5 140925Z 00013KT 02/M04 A302 RMK A01 T00211037  RH  066%=      5-min Rain = 0
KMC5 140926Z 00012KT 02/M04 A3021 RMK A01 T00201037  RH  066%=      5-min Rain = 0
KMC5 140927Z 01014KT 02/M04 A3021 RMK A01 T00201037  RH  066%=      5-min Rain = 0
KMC5 140928Z 00014KT 02/M04 A3021 RMK A01 T00201037  RH  066%=      5-min Rain = 0
KMC5 140929Z 00013KT 02/M04 A3021 RMK A01 T00201038  RH  066%=      5-min Rain = 0
KMC5 140930Z 00013KT 02/M04 A3021 RMK A01 T00201038  RH  065%=      5-min Rain = 0
KMC5 140931Z 00013KT 02/M04 A3021 RMK A01 T00201038  RH  065%=      5-min Rain = 0
KMC5 140932Z 00013KT 02/M04 A3021 RMK A01 T00191038  RH  066%=      5-min Rain = 0
KMC5 140933Z 00014KT 02/M04 A3021 RMK A01 T00191038  RH  066%=      5-min Rain = 0
KMC5 140934Z 00013KT 02/M04 A3021 RMK A01 T00191038  RH  066%=      5-min Rain = 0
KMC5 140935Z 00013KT 02/M04 A3021 RMK A01 T00191038  RH  066%=      5-min Rain = 0
KMC5 140936Z 00014KT 02/M04 A3021 RMK A01 T00191038  RH  066%=      5-min Rain = 0
KMC5 140937Z 00014KT 02/M04 A3021 RMK A01 T00191038  RH  066%=      5-min Rain = 0
KMC5 140938Z 00014KT 02/M04 A3021 RMK A01 T00191038  RH  066%=      5-min Rain = 0
KMC5 140939Z 00013KT 02/M04 A3021 RMK A01 T00191038  RH  066%=      5-min Rain = 0
KMC5 140940Z 00013KT 02/M04 A3021 RMK A01 T00191038  RH  066%=      5-min Rain = 0
KMC5 140941Z 01013KT 02/M04 A3021 RMK A01 T00191038  RH  066%=      5-min Rain = 0
KMC5 140942Z 00013KT 02/M04 A3021 RMK A01 T00191037  RH  066%=      5-min Rain = 0
KMC5 140943Z 36012KT 02/M04 A3021 RMK A01 T00191038  RH  066%=      5-min Rain = 0
KMC5 140944Z 00012KT 02/M04 A3022 RMK A01 T00191037  RH  066%=      5-min Rain = 0
KMC5 140945Z 00013KT 02/M04 A3022 RMK A01 T00191037  RH  067%=      5-min Rain = 0
KMC5 140946Z 00012KT 02/M04 A3022 RMK A01 T00191037  RH  067%=      5-min Rain = 0
KMC5 140947Z 00013KT 02/M04 A3022 RMK A01 T00191037  RH  067%=      5-min Rain = 0
KMC5 140948Z 00013KT 02/M04 A3021 RMK A01 T00181037  RH  067%=      5-min Rain = 0
KMC5 140949Z 00012KT 02/M04 A3021 RMK A01 T00191036  RH  067%=      5-min Rain = 0
KMC5 140950Z 00012KT 02/M04 A3021 RMK A01 T00191036  RH  067%=      5-min Rain = 0
KMC5 140951Z 00012KT 02/M04 A3021 RMK A01 T00181036  RH  067%=      5-min Rain = 0
KMC5 140952Z 00012KT 02/M04 A3021 RMK A01 T00181036  RH  067%=      5-min Rain = 0
KMC5 140953Z 00012KT 02/M04 A3022 RMK A01 T00191036  RH  067%=      5-min Rain = 0
KMC5 140954Z 00012KT 02/M04 A3022 RMK A01 T00181036  RH  068%=      5-min Rain = 0
KMC5 140955Z 00011KT 02/M04 A3022 RMK A01 T00171036  RH  068%=      5-min Rain = 0
KMC5 140956Z 00012KT 02/M04 A3022 RMK A01 T00171036  RH  068%=      5-min Rain = 0
KMC5 140957Z 00012KT 02/M04 A3022 RMK A01 T00181035  RH  068%=      5-min Rain = 0
KMC5 140958Z 00012KT 02/M04 A3022 RMK A01 T00181036  RH  068%=      5-min Rain = 0
KMC5 140959Z 00011KT 02/M04 A3022 RMK A01 T00181035  RH  068%=      5-min Rain = 0
KMC5 141000Z 00012KT 02/M04 A3022 RMK A01 T00171036  RH  068%=      5-min Rain = 0
KMC5 141001Z 00012KT 02/M04 A3022 RMK A01 T00171035  RH  068%=      5-min Rain = 0
KMC5 141002Z 01012KT 02/M04 A3022 RMK A01 T00181035  RH  068%=      5-min Rain = 0
KMC5 141003Z 01012KT 02/M04 A3022 RMK A01 T00181035  RH  068%=      5-min Rain = 0
KMC5 141004Z 00012KT 02/M04 A3022 RMK A01 T00181036  RH  068%=      5-min Rain = 0
KMC5 141005Z 01012KT 02/M04 A3022 RMK A01 T00181036  RH  068%=      5-min Rain = 0
KMC5 141006Z 01012KT 02/M04 A3022 RMK A01 T00171036  RH  068%=      5-min Rain = 0
KMC5 141007Z 00012KT 02/M04 A3022 RMK A01 T00171036  RH  068%=      5-min Rain = 0
KMC5 141008Z 01012KT 02/M04 A3022 RMK A01 T00181036  RH  068%=      5-min Rain = 0
KMC5 141009Z 00012KT 02/M04 A3022 RMK A01 T00181036  RH  068%=      5-min Rain = 0
KMC5 141010Z 00012KT 02/M04 A3022 RMK A01 T00171036  RH  068%=      5-min Rain = 0
KMC5 141011Z 00012KT 02/M04 A3023 RMK A01 T00171036  RH  068%=      5-min Rain = 0
KMC5 141012Z 00012KT 02/M04 A3023 RMK A01 T00171036  RH  068%=      5-min Rain = 0
KMC5 141013Z 36012KT 02/M04 A3023 RMK A01 T00181036  RH  067%=      5-min Rain = 0
KMC5 141014Z 36011KT 02/M04 A3023 RMK A01 T00171037  RH  067%=      5-min Rain = 0
KMC5 141015Z 00011KT 02/M04 A3023 RMK A01 T00171037  RH  067%=      5-min Rain = 0
KMC5 141016Z 36011KT 02/M04 A3023 RMK A01 T00171037  RH  067%=      5-min Rain = 0
KMC5 141017Z 36012KT 02/M04 A3023 RMK A01 T00171038  RH  067%=      5-min Rain = 0
KMC5 141018Z 00012KT 02/M04 A3023 RMK A01 T00171038  RH  067%=      5-min Rain = 0
KMC5 141019Z 00011KT 02/M04 A3023 RMK A01 T00171038  RH  067%=      5-min Rain = 0
KMC5 141020Z 00012KT 02/M04 A3023 RMK A01 T00171038  RH  067%=      5-min Rain = 0
KMC5 141021Z 00012KT 02/M04 A3023 RMK A01 T00181038  RH  067%=      5-min Rain = 0
KMC5 141022Z 36012KT 02/M04 A3023 RMK A01 T00171039  RH  066%=      5-min Rain = 0
KMC5 141023Z 35013KT 02/M04 A3023 RMK A01 T00171038  RH  066%=      5-min Rain = 0
KMC5 141024Z 36013KT 02/M04 A3023 RMK A01 T00181038  RH  066%=      5-min Rain = 0
KMC5 141025Z 00013KT 02/M04 A3023 RMK A01 T00181039  RH  066%=      5-min Rain = 0
KMC5 141026Z 00012KT 02/M04 A3023 RMK A01 T00181038  RH  066%=      5-min Rain = 0
KMC5 141027Z 36013KT 02/M04 A3023 RMK A01 T00171039  RH  066%=      5-min Rain = 0
KMC5 141028Z 00013KT 02/M04 A3023 RMK A01 T00181038  RH  066%=      5-min Rain = 0
KMC5 141029Z 00013KT 02/M04 A3023 RMK A01 T00171038  RH  066%=      5-min Rain = 0
KMC5 141030Z 00013KT 02/M04 A3023 RMK A01 T00171039  RH  066%=      5-min Rain = 0
KMC5 141031Z 00013KT 02/M04 A3023 RMK A01 T00171039  RH  066%=      5-min Rain = 0
KMC5 141032Z 00013KT 02/M04 A3023 RMK A01 T00171039  RH  067%=      5-min Rain = 0
KMC5 141033Z 00013KT 02/M04 A3023 RMK A01 T00171038  RH  067%=      5-min Rain = 0
KMC5 141034Z 00013KT 02/M04 A3023 RMK A01 T00171038  RH  067%=      5-min Rain = 0
KMC5 141035Z 00013KT 02/M04 A3023 RMK A01 T00171038  RH  067%=      5-min Rain = 0
KMC5 141036Z 00013KT 02/M04 A3023 RMK A01 T00171038  RH  067%=      5-min Rain = 0
KMC5 141037Z 00013KT 02/M04 A3023 RMK A01 T00171038  RH  067%=      5-min Rain = 0
KMC5 141038Z 01012KT 02/M04 A3023 RMK A01 T00171038  RH  067%=      5-min Rain = 0
KMC5 141039Z 00013KT 02/M04 A3023 RMK A01 T00171037  RH  067%=      5-min Rain = 0
KMC5 141040Z 00013KT 02/M04 A3023 RMK A01 T00171037  RH  067%=      5-min Rain = 0
KMC5 141041Z 01012KT 02/M04 A3023 RMK A01 T00161037  RH  067%=      5-min Rain = 0
KMC5 141042Z 00012KT 02/M04 A3023 RMK A01 T00161037  RH  068%=      5-min Rain = 0
KMC5 141043Z 01012KT 02/M04 A3023 RMK A01 T00161038  RH  068%=      5-min Rain = 0
KMC5 141044Z 01012KT 02/M04 A3024 RMK A01 T00151037  RH  068%=      5-min Rain = 0
KMC5 141045Z 00013KT 02/M04 A3024 RMK A01 T00161037  RH  068%=      5-min Rain = 0
KMC5 141046Z 01012KT 02/M04 A3024 RMK A01 T00151037  RH  068%=      5-min Rain = 0
KMC5 141047Z 01011KT 02/M04 A3024 RMK A01 T00151037  RH  068%=      5-min Rain = 0
KMC5 141048Z 01012KT 02/M04 A3024 RMK A01 T00151037  RH  069%=      5-min Rain = 0
KMC5 141049Z 01012KT 01/M04 A3024 RMK A01 T00141037  RH  069%=      5-min Rain = 0
KMC5 141050Z 01012KT 01/M04 A3024 RMK A01 T00141036  RH  069%=      5-min Rain = 0
KMC5 141051Z 00011KT 01/M04 A3024 RMK A01 T00141036  RH  069%=      5-min Rain = 0
KMC5 141052Z 01012KT 01/M04 A3024 RMK A01 T00141036  RH  069%=      5-min Rain = 0
KMC5 141053Z 00011KT 01/M04 A3024 RMK A01 T00131036  RH  069%=      5-min Rain = 0
KMC5 141054Z 00011KT 01/M04 A3024 RMK A01 T00131036  RH  070%=      5-min Rain = 0
KMC5 141055Z 00012KT 01/M04 A3024 RMK A01 T00131036  RH  070%=      5-min Rain = 0
KMC5 141056Z 01012KT 01/M04 A3024 RMK A01 T00131036  RH  070%=      5-min Rain = 0
KMC5 141057Z 00012KT 01/M04 A3024 RMK A01 T00131036  RH  070%=      5-min Rain = 0
KMC5 141058Z 00012KT 01/M04 A3024 RMK A01 T00121036  RH  070%=      5-min Rain = 0
KMC5 141059Z 00011KT 01/M04 A3024 RMK A01 T00121036  RH  070%=      5-min Rain = 0
KMC5 141100Z 00013KT 01/M04 A3024 RMK A01 T00121036  RH  070%=      5-min Rain = 0
KMC5 141101Z 00012KT 01/M04 A3024 RMK A01 T00111036  RH  071%=      5-min Rain = 0
KMC5 141102Z 01012KT 01/M04 A3024 RMK A01 T00121036  RH  071%=      5-min Rain = 0
KMC5 141103Z 00012KT 01/M04 A3024 RMK A01 T00111036  RH  071%=      5-min Rain = 0
KMC5 141104Z 00012KT 01/M04 A3024 RMK A01 T00111036  RH  071%=      5-min Rain = 0
KMC5 141105Z 00012KT 01/M04 A3024 RMK A01 T00111036  RH  071%=      5-min Rain = 0
KMC5 141106Z 01012KT 01/M04 A3024 RMK A01 T00101036  RH  071%=      5-min Rain = 0
KMC5 141107Z 01013KT 01/M04 A3024 RMK A01 T00101036  RH  072%=      5-min Rain = 0
KMC5 141108Z 01013KT 01/M04 A3024 RMK A01 T00101035  RH  072%=      5-min Rain = 0
KMC5 141109Z 01013KT 01/M04 A3024 RMK A01 T00101035  RH  072%=      5-min Rain = 0
KMC5 141110Z 00013KT 01/M04 A3024 RMK A01 T00111035  RH  071%=      5-min Rain = 0
KMC5 141111Z 01012KT 01/M04 A3024 RMK A01 T00101035  RH  071%=      5-min Rain = 0
KMC5 141112Z 01013KT 01/M04 A3024 RMK A01 T00101035  RH  072%=      5-min Rain = 0
KMC5 141113Z 01013KT 01/M04 A3024 RMK A01 T00101035  RH  072%=      5-min Rain = 0
KMC5 141114Z 01013KT 01/M04 A3024 RMK A01 T00101035  RH  072%=      5-min Rain = 0
KMC5 141115Z 01013KT 01/M04 A3024 RMK A01 T00101035  RH  072%=      5-min Rain = 0
KMC5 141116Z 00012KT 01/M04 A3024 RMK A01 T00101035  RH  072%=      5-min Rain = 0
KMC5 141117Z 01013KT 01/M04 A3025 RMK A01 T00101036  RH  072%=      5-min Rain = 0
KMC5 141118Z 01013KT 01/M04 A3025 RMK A01 T00101035  RH  072%=      5-min Rain = 0
KMC5 141119Z 01013KT 01/M04 A3025 RMK A01 T00101035  RH  072%=      5-min Rain = 0
KMC5 141120Z 01013KT 01/M04 A3025 RMK A01 T00101035  RH  072%=      5-min Rain = 0
KMC5 141121Z 01013KT 01/M04 A3025 RMK A01 T00101035  RH  072%=      5-min Rain = 0
KMC5 141122Z 01013KT 01/M04 A3025 RMK A01 T00101035  RH  072%=      5-min Rain = 0
KMC5 141123Z 01014KT 01/M04 A3025 RMK A01 T00101035  RH  072%=      5-min Rain = 0
KMC5 141124Z 01013KT 01/M04 A3025 RMK A01 T00101035  RH  072%=      5-min Rain = 0
KMC5 141125Z 01014KT 01/M04 A3025 RMK A01 T00101035  RH  072%=      5-min Rain = 0
KMC5 141126Z 01014KT 01/M04 A3025 RMK A01 T00091035  RH  072%=      5-min Rain = 0
KMC5 141127Z 01013KT 01/M04 A3025 RMK A01 T00091035  RH  072%=      5-min Rain = 0
KMC5 141128Z 01014KT 01/M04 A3025 RMK A01 T00091035  RH  072%=      5-min Rain = 0
KMC5 141129Z 01014KT 01/M04 A3025 RMK A01 T00091035  RH  072%=      5-min Rain = 0
KMC5 141130Z 01014KT 01/M04 A3025 RMK A01 T00091035  RH  072%=      5-min Rain = 0
KMC5 141131Z 01013KT 01/M04 A3025 RMK A01 T00091035  RH  072%=      5-min Rain = 0
KMC5 141132Z 01014KT 01/M04 A3025 RMK A01 T00091035  RH  072%=      5-min Rain = 0
KMC5 141133Z 01014KT 01/M04 A3025 RMK A01 T00091035  RH  072%=      5-min Rain = 0
KMC5 141134Z 01013KT 01/M04 A3025 RMK A01 T00091035  RH  072%=      5-min Rain = 0
KMC5 141135Z 01013KT 01/M04 A3025 RMK A01 T00081036  RH  072%=      5-min Rain = 0
KMC5 141136Z 01012KT 01/M04 A3025 RMK A01 T00081036  RH  072%=      5-min Rain = 0
KMC5 141137Z 01013KT 01/M04 A3025 RMK A01 T00071036  RH  073%=      5-min Rain = 0
KMC5 141138Z 01013KT 01/M04 A3025 RMK A01 T00071036  RH  073%=      5-min Rain = 0
KMC5 141139Z 01013KT 01/M04 A3025 RMK A01 T00081035  RH  073%=      5-min Rain = 0
KMC5 141140Z 01012KT 01/M04 A3025 RMK A01 T00081035  RH  073%=      5-min Rain = 0
KMC5 141141Z 01012KT 01/M04 A3025 RMK A01 T00081035  RH  073%=      5-min Rain = 0
KMC5 141142Z 01012KT 01/M04 A3025 RMK A01 T00081035  RH  073%=      5-min Rain = 0
KMC5 141143Z 01011KT 01/M04 A3025 RMK A01 T00081035  RH  073%=      5-min Rain = 0
KMC5 141144Z 01012KT 01/M04 A3025 RMK A01 T00071035  RH  073%=      5-min Rain = 0
KMC5 141145Z 01012KT 01/M04 A3025 RMK A01 T00071035  RH  073%=      5-min Rain = 0
KMC5 141146Z 01013KT 01/M04 A3025 RMK A01 T00071035  RH  073%=      5-min Rain = 0
KMC5 141147Z 01012KT 01/M04 A3025 RMK A01 T00071035  RH  074%=      5-min Rain = 0
KMC5 141148Z 01012KT 01/M04 A3025 RMK A01 T00071035  RH  074%=      5-min Rain = 0
KMC5 141149Z 01013KT 01/M04 A3026 RMK A01 T00061035  RH  074%=      5-min Rain = 0
KMC5 141150Z 01013KT 01/M04 A3026 RMK A01 T00061035  RH  074%=      5-min Rain = 0
KMC5 141151Z 01012KT 01/M04 A3026 RMK A01 T00061035  RH  074%=      5-min Rain = 0
KMC5 141152Z 01013KT 01/M03 A3026 RMK A01 T00071034  RH  074%=      5-min Rain = 0
KMC5 141153Z 01013KT 01/M03 A3026 RMK A01 T00071034  RH  074%=      5-min Rain = 0
KMC5 141154Z 01013KT 01/M03 A3026 RMK A01 T00071034  RH  074%=      5-min Rain = 0
KMC5 141155Z 01013KT 01/M03 A3026 RMK A01 T00071034  RH  074%=      5-min Rain = 0
KMC5 141156Z 01013KT 01/M04 A3026 RMK A01 T00071035  RH  074%=      5-min Rain = 0
KMC5 141157Z 01012KT 01/M04 A3026 RMK A01 T00071035  RH  074%=      5-min Rain = 0
KMC5 141158Z 01013KT 01/M04 A3026 RMK A01 T00061035  RH  074%=      5-min Rain = 0
KMC5 141159Z 01013KT 01/M04 A3026 RMK A01 T00061035  RH  074%=      5-min Rain = 0
KMC5 141200Z 00011KT 01/M04 A3026 RMK A01 T00061035  RH  074%=      5-min Rain = 0
KMC5 141201Z 00011KT 01/M04 A3026 RMK A01 T00051036  RH  074%=      5-min Rain = 0
KMC5 141202Z 01011KT 00/M04 A3026 RMK A01 T00041035  RH  075%=      5-min Rain = 0
KMC5 141203Z 01011KT 00/M04 A3026 RMK A01 T00041035  RH  075%=      5-min Rain = 0
KMC5 141204Z 01011KT 00/M04 A3026 RMK A01 T00041035  RH  075%=      5-min Rain = 0
KMC5 141205Z 00011KT 00/M04 A3026 RMK A01 T00041035  RH  075%=      5-min Rain = 0
KMC5 141206Z 01012KT 00/M04 A3026 RMK A01 T00041035  RH  075%=      5-min Rain = 0
KMC5 141207Z 01010KT 00/M04 A3026 RMK A01 T00041035  RH  075%=      5-min Rain = 0
KMC5 141208Z 01011KT 00/M04 A3026 RMK A01 T00041035  RH  075%=      5-min Rain = 0
KMC5 141209Z 01011KT 00/M04 A3026 RMK A01 T00041035  RH  075%=      5-min Rain = 0
KMC5 141210Z 01010KT 00/M04 A3026 RMK A01 T00041035  RH  075%=      5-min Rain = 0
KMC5 141211Z 01010KT 00/M04 A3026 RMK A01 T00041035  RH  075%=      5-min Rain = 0
KMC5 141212Z 01011KT 00/M03 A3026 RMK A01 T00041034  RH  075%=      5-min Rain = 0
KMC5 141213Z 00011KT 00/M03 A3027 RMK A01 T00041034  RH  075%=      5-min Rain = 0
KMC5 141214Z 00011KT 00/M04 A3027 RMK A01 T00041035  RH  075%=      5-min Rain = 0
KMC5 141215Z 01011KT 00/M04 A3027 RMK A01 T00031035  RH  076%=      5-min Rain = 0
KMC5 141216Z 00011KT 00/M04 A3027 RMK A01 T00031035  RH  076%=      5-min Rain = 0
KMC5 141217Z 01011KT 00/M04 A3027 RMK A01 T00031035  RH  076%=      5-min Rain = 0
KMC5 141218Z 00012KT 00/M04 A3027 RMK A01 T00031035  RH  076%=      5-min Rain = 0
KMC5 141219Z 01012KT 00/M03 A3027 RMK A01 T00031034  RH  076%=      5-min Rain = 0
KMC5 141220Z 00013KT 00/M03 A3027 RMK A01 T00031034  RH  076%=      5-min Rain = 0
KMC5 141221Z 01012KT 00/M03 A3027 RMK A01 T00031034  RH  076%=      5-min Rain = 0
KMC5 141222Z 00012KT 00/M03 A3027 RMK A01 T00031034  RH  076%=      5-min Rain = 0
KMC5 141223Z 00013KT 00/M03 A3027 RMK A01 T00031034  RH  076%=      5-min Rain = 0
KMC5 141224Z 00013KT 00/M03 A3027 RMK A01 T00021034  RH  076%=      5-min Rain = 0
KMC5 141225Z 00012KT 00/M03 A3027 RMK A01 T00021034  RH  077%=      5-min Rain = 0
KMC5 141226Z 01012KT 00/M04 A3027 RMK A01 T00021035  RH  077%=      5-min Rain = 0
KMC5 141227Z 00013KT 00/M03 A3027 RMK A01 T00011034  RH  077%=      5-min Rain = 0
KMC5 141228Z 00012KT 00/M03 A3027 RMK A01 T00011034  RH  077%=      5-min Rain = 0
KMC5 141229Z 00013KT 00/M03 A3028 RMK A01 T00011034  RH  077%=      5-min Rain = 0
KMC5 141230Z 00014KT 00/M03 A3028 RMK A01 T00011034  RH  077%=      5-min Rain = 0
KMC5 141231Z 00013KT 00/M03 A3028 RMK A01 T00011034  RH  077%=      5-min Rain = 0
KMC5 141232Z 00012KT 00/M03 A3028 RMK A01 T00021033  RH  077%=      5-min Rain = 0
KMC5 141233Z 00013KT 00/M03 A3028 RMK A01 T00021033  RH  077%=      5-min Rain = 0
KMC5 141234Z 01012KT 00/M03 A3028 RMK A01 T00021033  RH  077%=      5-min Rain = 0
KMC5 141235Z 00011KT 00/M03 A3028 RMK A01 T00021033  RH  077%=      5-min Rain = 0
KMC5 141236Z 00012KT 00/M03 A3028 RMK A01 T00021033  RH  077%=      5-min Rain = 0
KMC5 141237Z 00012KT 00/M03 A3028 RMK A01 T00021033  RH  077%=      5-min Rain = 0
KMC5 141238Z 00012KT 00/M03 A3028 RMK A01 T00021032  RH  078%=      5-min Rain = 0
KMC5 141239Z 00012KT 00/M03 A3028 RMK A01 T00021032  RH  078%=      5-min Rain = 0
KMC5 141240Z 00011KT 00/M03 A3028 RMK A01 T00021032  RH  077%=      5-min Rain = 0
KMC5 141241Z 00012KT 00/M03 A3028 RMK A01 T00021033  RH  077%=      5-min Rain = 0
KMC5 141242Z 00012KT 00/M03 A3028 RMK A01 T00011033  RH  078%=      5-min Rain = 0
KMC5 141243Z 00012KT 00/M03 A3028 RMK A01 T00011032  RH  078%=      5-min Rain = 0
KMC5 141244Z 00012KT 00/M03 A3028 RMK A01 T00011032  RH  078%=      5-min Rain = 0
KMC5 141245Z 00012KT 00/M03 A3028 RMK A01 T00011032  RH  078%=      5-min Rain = 0
KMC5 141246Z 00011KT 00/M03 A3028 RMK A01 T00011032  RH  078%=      5-min Rain = 0
KMC5 141247Z 00011KT 00/M03 A3028 RMK A01 T00011032  RH  079%=      5-min Rain = 0
KMC5 141248Z 01011KT 00/03 A3028 RMK A01 T00000-32  RH  079%=      5-min Rain = 0
KMC5 141249Z 00011KT 00/03 A3028 RMK A01 T00000-32  RH  079%=      5-min Rain = 0
KMC5 141250Z 00011KT 00/03 A3028 RMK A01 T00000-31  RH  079%=      5-min Rain = 0
KMC5 141251Z 00011KT 00/M03 A3028 RMK A01 T00011031  RH  079%=      5-min Rain = 0
KMC5 141252Z 00012KT 00/M03 A3028 RMK A01 T00011031  RH  079%=      5-min Rain = 0
KMC5 141253Z 00012KT 00/M03 A3028 RMK A01 T00011031  RH  079%=      5-min Rain = 0
KMC5 141254Z 00011KT 00/M03 A3029 RMK A01 T00011031  RH  079%=      5-min Rain = 0
KMC5 141255Z 00011KT 00/M03 A3029 RMK A01 T00011030  RH  079%=      5-min Rain = 0
KMC5 141256Z 01011KT 00/M03 A3029 RMK A01 T00011031  RH  079%=      5-min Rain = 0
KMC5 141257Z 00011KT 00/03 A3029 RMK A01 T00000-31  RH  080%=      5-min Rain = 0
KMC5 141258Z 00012KT 00/M03 A3029 RMK A01 T00011030  RH  080%=      5-min Rain = 0
KMC5 141259Z 00012KT 00/M03 A3029 RMK A01 T00011030  RH  080%=      5-min Rain = 0
KMC5 141300Z 00012KT 00/M03 A3029 RMK A01 T00011031  RH  080%=      5-min Rain = 0
KMC5 141301Z 00011KT 00/M03 A3029 RMK A01 T00011030  RH  080%=      5-min Rain = 0
KMC5 141302Z 00011KT 00/03 A3029 RMK A01 T00-00-31  RH  080%=      5-min Rain = 0
KMC5 141303Z 00011KT 00/03 A3029 RMK A01 T00-00-31  RH  080%=      5-min Rain = 0
KMC5 141304Z 00011KT M00/M03 A3029 RMK A01 T10011031  RH  080%=      5-min Rain = 0
KMC5 141305Z 00012KT M00/M03 A3029 RMK A01 T10011031  RH  080%=      5-min Rain = 0
KMC5 141306Z 00011KT M00/M03 A3029 RMK A01 T10011030  RH  080%=      5-min Rain = 0
KMC5 141307Z 00011KT 00/03 A3029 RMK A01 T00-00-31  RH  080%=      5-min Rain = 0
KMC5 141308Z 00011KT M00/M03 A3029 RMK A01 T10011030  RH  080%=      5-min Rain = 0
KMC5 141309Z 00011KT M00/M03 A3029 RMK A01 T10011030  RH  081%=      5-min Rain = 0
KMC5 141310Z 00012KT M00/M03 A3029 RMK A01 T10011030  RH  081%=      5-min Rain = 0
KMC5 141311Z 00012KT M00/M03 A3029 RMK A01 T10011030  RH  081%=      5-min Rain = 0
KMC5 141312Z 00012KT M00/M03 A3029 RMK A01 T10011030  RH  081%=      5-min Rain = 0
KMC5 141313Z 00012KT M00/M03 A3029 RMK A01 T10011030  RH  081%=      5-min Rain = 0
KMC5 141314Z 36012KT M00/M03 A3029 RMK A01 T10011030  RH  081%=      5-min Rain = 0
KMC5 141315Z 36012KT M00/M03 A3029 RMK A01 T10011029  RH  081%=      5-min Rain = 0
KMC5 141316Z 36012KT M00/M03 A3029 RMK A01 T10011029  RH  081%=      5-min Rain = 0
KMC5 141317Z 36012KT M00/M03 A3029 RMK A01 T10011029  RH  081%=      5-min Rain = 0
KMC5 141318Z 36011KT M00/M03 A3029 RMK A01 T10011029  RH  081%=      5-min Rain = 0
KMC5 141319Z 36012KT M00/M03 A303 RMK A01 T10011029  RH  081%=      5-min Rain = 0
KMC5 141320Z 00012KT 00/03 A303 RMK A01 T00-00-29  RH  081%=      5-min Rain = 0
KMC5 141321Z 36011KT 00/03 A303 RMK A01 T00-00-29  RH  081%=      5-min Rain = 0
KMC5 141322Z 36012KT 00/03 A303 RMK A01 T00-00-29  RH  081%=      5-min Rain = 0
KMC5 141323Z 35012KT 00/03 A303 RMK A01 T00-00-29  RH  081%=      5-min Rain = 0
KMC5 141324Z 00012KT 00/03 A303 RMK A01 T00-00-29  RH  081%=      5-min Rain = 0
KMC5 141325Z 00011KT M00/M03 A303 RMK A01 T10011029  RH  081%=      5-min Rain = 0
KMC5 141326Z 00012KT 00/03 A303 RMK A01 T00-00-29  RH  081%=      5-min Rain = 0
KMC5 141327Z 00012KT M00/M03 A303 RMK A01 T10011029  RH  081%=      5-min Rain = 0
KMC5 141328Z 00011KT 00/03 A303 RMK A01 T00000-28  RH  082%=      5-min Rain = 0
KMC5 141329Z 36012KT 00/M03 A303 RMK A01 T00011028  RH  081%=      5-min Rain = 0
KMC5 141330Z 36011KT 00/M03 A303 RMK A01 T00011027  RH  081%=      5-min Rain = 0
KMC5 141331Z 36011KT 00/M03 A303 RMK A01 T00011027  RH  081%=      5-min Rain = 0
KMC5 141332Z 36012KT 00/M03 A303 RMK A01 T00021027  RH  081%=      5-min Rain = 0
KMC5 141333Z 00012KT 00/M03 A303 RMK A01 T00021027  RH  081%=      5-min Rain = 0
KMC5 141334Z 36012KT 00/M03 A3031 RMK A01 T00021027  RH  081%=      5-min Rain = 0
KMC5 141335Z 00012KT 00/M03 A3031 RMK A01 T00031026  RH  081%=      5-min Rain = 0
KMC5 141336Z 36012KT 00/M03 A3031 RMK A01 T00031026  RH  081%=      5-min Rain = 0
KMC5 141337Z 36012KT 00/M03 A3031 RMK A01 T00031026  RH  081%=      5-min Rain = 0
KMC5 141338Z 35012KT 00/M03 A3031 RMK A01 T00031026  RH  081%=      5-min Rain = 0
KMC5 141339Z 00012KT 00/M03 A3031 RMK A01 T00041026  RH  081%=      5-min Rain = 0
KMC5 141340Z 36012KT 01/M03 A3031 RMK A01 T00051025  RH  080%=      5-min Rain = 0
KMC5 141341Z 36013KT 01/M03 A3031 RMK A01 T00061025  RH  080%=      5-min Rain = 0
KMC5 141342Z 36012KT 01/M03 A3031 RMK A01 T00061025  RH  080%=      5-min Rain = 0
KMC5 141343Z 36012KT 01/M03 A3031 RMK A01 T00071025  RH  080%=      5-min Rain = 0
KMC5 141344Z 36012KT 01/M03 A3031 RMK A01 T00061025  RH  079%=      5-min Rain = 0
KMC5 141345Z 36012KT 01/M02 A3031 RMK A01 T00071024  RH  079%=      5-min Rain = 0
KMC5 141346Z 36012KT 01/M02 A3031 RMK A01 T00081024  RH  079%=      5-min Rain = 0
KMC5 141347Z 36013KT 01/M02 A3031 RMK A01 T00081024  RH  079%=      5-min Rain = 0
KMC5 141348Z 36012KT 01/M02 A3032 RMK A01 T00081024  RH  079%=      5-min Rain = 0
KMC5 141349Z 36013KT 01/M02 A3032 RMK A01 T00081024  RH  079%=      5-min Rain = 0
KMC5 141350Z 35012KT 01/M02 A3032 RMK A01 T00081024  RH  079%=      5-min Rain = 0
KMC5 141351Z 35013KT 01/M02 A3032 RMK A01 T00091024  RH  079%=      5-min Rain = 0
KMC5 141352Z 36012KT 01/M02 A3032 RMK A01 T00091023  RH  079%=      5-min Rain = 0
KMC5 141353Z 35012KT 01/M02 A3032 RMK A01 T00091024  RH  079%=      5-min Rain = 0
KMC5 141354Z 36012KT 01/M02 A3032 RMK A01 T00101023  RH  079%=      5-min Rain = 0
KMC5 141355Z 00012KT 01/M02 A3032 RMK A01 T00101023  RH  078%=      5-min Rain = 0
KMC5 141356Z 00012KT 01/M02 A3032 RMK A01 T00101023  RH  078%=      5-min Rain = 0
KMC5 141357Z 36011KT 01/M02 A3032 RMK A01 T00111023  RH  078%=      5-min Rain = 0
KMC5 141358Z 36011KT 01/M02 A3032 RMK A01 T00111023  RH  078%=      5-min Rain = 0
KMC5 141359Z 00012KT 01/M02 A3032 RMK A01 T00111022  RH  078%=      5-min Rain = 0
KMC5 141400Z 00012KT 01/M02 A3032 RMK A01 T00121022  RH  078%=      5-min Rain = 0
KMC5 141401Z 36012KT 01/M02 A3032 RMK A01 T00121022  RH  078%=      5-min Rain = 0
KMC5 141402Z 00012KT 01/M02 A3033 RMK A01 T00131021  RH  078%=      5-min Rain = 0
KMC5 141403Z 36012KT 01/M02 A3033 RMK A01 T00131021  RH  078%=      5-min Rain = 0
KMC5 141404Z 00012KT 01/M02 A3033 RMK A01 T00141021  RH  078%=      5-min Rain = 0
KMC5 141405Z 36011KT 01/M02 A3033 RMK A01 T00141021  RH  078%=      5-min Rain = 0
KMC5 141406Z 36011KT 02/M02 A3033 RMK A01 T00151020  RH  077%=      5-min Rain = 0
KMC5 141407Z 36011KT 02/M02 A3033 RMK A01 T00151020  RH  077%=      5-min Rain = 0
KMC5 141408Z 36012KT 02/M02 A3033 RMK A01 T00161020  RH  077%=      5-min Rain = 0
KMC5 141409Z 35012KT 02/M02 A3033 RMK A01 T00161020  RH  077%=      5-min Rain = 0
KMC5 141410Z 36010KT 02/M02 A3033 RMK A01 T00171019  RH  077%=      5-min Rain = 0
KMC5 141411Z 36010KT 02/M02 A3033 RMK A01 T00171019  RH  076%=      5-min Rain = 0
KMC5 141412Z 00011KT 02/M02 A3033 RMK A01 T00181019  RH  076%=      5-min Rain = 0
KMC5 141413Z 36012KT 02/M02 A3033 RMK A01 T00191019  RH  076%=      5-min Rain = 0
KMC5 141414Z 36011KT 02/M02 A3034 RMK A01 T00191019  RH  076%=      5-min Rain = 0
KMC5 141415Z 36010KT 02/M02 A3034 RMK A01 T00201018  RH  076%=      5-min Rain = 0
KMC5 141416Z 36010KT 02/M02 A3034 RMK A01 T00211018  RH  075%=      5-min Rain = 0
KMC5 141417Z 36010KT 02/M02 A3034 RMK A01 T00211018  RH  075%=      5-min Rain = 0
KMC5 141418Z 36010KT 02/M02 A3034 RMK A01 T00221019  RH  075%=      5-min Rain = 0
KMC5 141419Z 36010KT 02/M02 A3034 RMK A01 T00221019  RH  075%=      5-min Rain = 0
KMC5 141420Z 00010KT 02/M02 A3034 RMK A01 T00221019  RH  074%=      5-min Rain = 0
KMC5 141421Z 36010KT 02/M02 A3034 RMK A01 T00221019  RH  074%=      5-min Rain = 0
KMC5 141422Z 36011KT 02/M02 A3034 RMK A01 T00231018  RH  074%=      5-min Rain = 0
KMC5 141423Z 01011KT 02/M02 A3034 RMK A01 T00241018  RH  074%=      5-min Rain = 0
KMC5 141424Z 36010KT 02/M02 A3034 RMK A01 T00241018  RH  074%=      5-min Rain = 0
KMC5 141425Z 36012KT 02/M02 A3034 RMK A01 T00241018  RH  074%=      5-min Rain = 0
KMC5 141426Z 35012KT 03/M02 A3034 RMK A01 T00251018  RH  073%=      5-min Rain = 0
KMC5 141427Z 35012KT 03/M02 A3034 RMK A01 T00251018  RH  073%=      5-min Rain = 0
KMC5 141428Z 36011KT 03/M02 A3034 RMK A01 T00251018  RH  073%=      5-min Rain = 0
KMC5 141429Z 36011KT 03/M02 A3034 RMK A01 T00261017  RH  073%=      5-min Rain = 0
KMC5 141430Z 00011KT 03/M02 A3034 RMK A01 T00271017  RH  073%=      5-min Rain = 0
KMC5 141431Z 36011KT 03/M02 A3034 RMK A01 T00271017  RH  073%=      5-min Rain = 0
KMC5 141432Z 00011KT 03/M02 A3034 RMK A01 T00281017  RH  073%=      5-min Rain = 0
KMC5 141433Z 36012KT 03/M02 A3034 RMK A01 T00281016  RH  073%=      5-min Rain = 0
KMC5 141434Z 36012KT 03/M02 A3034 RMK A01 T00291017  RH  072%=      5-min Rain = 0
KMC5 141435Z 00012KT 03/M02 A3034 RMK A01 T00291016  RH  072%=      5-min Rain = 0
KMC5 141436Z 00011KT 03/M02 A3034 RMK A01 T00301016  RH  072%=      5-min Rain = 0
KMC5 141437Z 00010KT 03/M02 A3035 RMK A01 T00301016  RH  072%=      5-min Rain = 0
KMC5 141438Z 36011KT 03/M02 A3035 RMK A01 T00311016  RH  072%=      5-min Rain = 0
KMC5 141439Z 36010KT 03/M02 A3035 RMK A01 T00311015  RH  071%=      5-min Rain = 0
KMC5 141440Z 00010KT 03/M01 A3035 RMK A01 T00331014  RH  071%=      5-min Rain = 0
KMC5 141441Z 00011KT 03/M01 A3035 RMK A01 T00341014  RH  071%=      5-min Rain = 0
KMC5 141442Z 00011KT 03/M01 A3035 RMK A01 T00341014  RH  071%=      5-min Rain = 0
KMC5 141443Z 00011KT 04/M01 A3035 RMK A01 T00351014  RH  071%=      5-min Rain = 0
KMC5 141444Z 00011KT 04/M01 A3035 RMK A01 T00361014  RH  070%=      5-min Rain = 0
KMC5 141445Z 01009KT 04/M01 A3035 RMK A01 T00361013  RH  070%=      5-min Rain = 0
KMC5 141446Z 01011KT 04/M01 A3036 RMK A01 T00381012  RH  070%=      5-min Rain = 0
KMC5 141447Z 01013KT 04/M01 A3036 RMK A01 T00391013  RH  069%=      5-min Rain = 0
KMC5 141448Z 00011KT 04/M01 A3036 RMK A01 T00391013  RH  069%=      5-min Rain = 0
KMC5 141449Z 01012KT 04/M01 A3036 RMK A01 T00401012  RH  069%=      5-min Rain = 0
KMC5 141450Z 01012KT 04/M01 A3036 RMK A01 T00411012  RH  068%=      5-min Rain = 0
KMC5 141451Z 01011KT 04/M01 A3036 RMK A01 T00421012  RH  068%=      5-min Rain = 0
KMC5 141452Z 01012KT 04/M01 A3036 RMK A01 T00421012  RH  068%=      5-min Rain = 0
KMC5 141453Z 00012KT 04/M01 A3036 RMK A01 T00431012  RH  067%=      5-min Rain = 0
KMC5 141454Z 01012KT 04/M01 A3036 RMK A01 T00431012  RH  067%=      5-min Rain = 0
KMC5 141455Z 00011KT 04/M01 A3036 RMK A01 T00441011  RH  067%=      5-min Rain = 0
KMC5 141456Z 01012KT 05/M01 A3036 RMK A01 T00451011  RH  067%=      5-min Rain = 0
KMC5 141457Z 01012KT 05/M01 A3036 RMK A01 T00461011  RH  066%=      5-min Rain = 0
KMC5 141458Z 02010KT 05/M01 A3037 RMK A01 T00461011  RH  066%=      5-min Rain = 0
KMC5 141459Z 01011KT 05/M01 A3036 RMK A01 T00481010  RH  066%=      5-min Rain = 0
KMC5 141500Z 01011KT 05/M01 A3036 RMK A01 T00491011  RH  065%=      5-min Rain = 0
KMC5 141501Z 01014KT 05/M01 A3036 RMK A01 T00481011  RH  065%=      5-min Rain = 0
KMC5 141502Z 01012KT 05/M01 A3037 RMK A01 T00481012  RH  065%=      5-min Rain = 0
KMC5 141503Z 01012KT 05/M01 A3037 RMK A01 T00481012  RH  065%=      5-min Rain = 0
KMC5 141504Z 01010KT 05/M01 A3037 RMK A01 T00481011  RH  065%=      5-min Rain = 0
KMC5 141505Z 01013KT 05/M01 A3037 RMK A01 T00501011  RH  065%=      5-min Rain = 0
KMC5 141506Z 01013KT 05/M01 A3037 RMK A01 T00501011  RH  064%=      5-min Rain = 0
KMC5 141507Z 01015KT 05/M01 A3037 RMK A01 T00501012  RH  064%=      5-min Rain = 0
KMC5 141508Z 01013KT 05/M01 A3037 RMK A01 T00501011  RH  064%=      5-min Rain = 0
KMC5 141509Z 01013KT 05/M01 A3037 RMK A01 T00511011  RH  064%=      5-min Rain = 0
KMC5 141510Z 01012KT 05/M01 A3037 RMK A01 T00511011  RH  064%=      5-min Rain = 0
KMC5 141511Z 01011KT 05/M01 A3037 RMK A01 T00531011  RH  064%=      5-min Rain = 0
KMC5 141512Z 01012KT 05/M01 A3037 RMK A01 T00531011  RH  063%=      5-min Rain = 0
KMC5 141513Z 01013KT 05/M01 A3037 RMK A01 T00541011  RH  063%=      5-min Rain = 0
KMC5 141514Z 01014KT 05/M01 A3037 RMK A01 T00541012  RH  063%=      5-min Rain = 0
KMC5 141515Z 01013KT 05/M01 A3037 RMK A01 T00541011  RH  063%=      5-min Rain = 0
KMC5 141516Z 02013KT 05/M01 A3037 RMK A01 T00541012  RH  063%=      5-min Rain = 0
KMC5 141517Z 02011KT 05/M01 A3037 RMK A01 T00541012  RH  063%=      5-min Rain = 0
KMC5 141518Z 02012KT 05/M01 A3037 RMK A01 T00541011  RH  063%=      5-min Rain = 0
KMC5 141519Z 01012KT 06/M01 A3037 RMK A01 T00551012  RH  062%=      5-min Rain = 0
KMC5 141520Z 01012KT 05/M01 A3037 RMK A01 T00541012  RH  062%=      5-min Rain = 0
KMC5 141521Z 01011KT 06/M01 A3037 RMK A01 T00551012  RH  062%=      5-min Rain = 0
KMC5 141522Z 02013KT 06/M01 A3037 RMK A01 T00571011  RH  062%=      5-min Rain = 0
KMC5 141523Z 02012KT 06/M01 A3037 RMK A01 T00571012  RH  061%=      5-min Rain = 0
KMC5 141524Z 02012KT 06/M01 A3038 RMK A01 T00571012  RH  061%=      5-min Rain = 0
KMC5 141525Z 01011KT 06/M01 A3038 RMK A01 T00571012  RH  061%=      5-min Rain = 0
KMC5 141526Z 01012KT 06/M01 A3038 RMK A01 T00571012  RH  061%=      5-min Rain = 0
KMC5 141527Z 01012KT 06/M01 A3038 RMK A01 T00571013  RH  061%=      5-min Rain = 0
KMC5 141528Z 02011KT 06/M01 A3038 RMK A01 T00581012  RH  061%=      5-min Rain = 0
KMC5 141529Z 01010KT 06/M01 A3038 RMK A01 T00591012  RH  060%=      5-min Rain = 0
KMC5 141530Z 01012KT 06/M01 A3038 RMK A01 T00611012  RH  059%=      5-min Rain = 0
KMC5 141531Z 02012KT 06/M01 A3038 RMK A01 T00611013  RH  059%=      5-min Rain = 0
KMC5 141532Z 01012KT 06/M01 A3038 RMK A01 T00601013  RH  060%=      5-min Rain = 0
KMC5 141533Z 01012KT 06/M01 A3038 RMK A01 T00601012  RH  060%=      5-min Rain = 0
KMC5 141534Z 01013KT 06/M01 A3038 RMK A01 T00611012  RH  060%=      5-min Rain = 0
KMC5 141535Z 01011KT 06/M01 A3038 RMK A01 T00611012  RH  059%=      5-min Rain = 0
KMC5 141536Z 02011KT 06/M01 A3038 RMK A01 T00621011  RH  059%=      5-min Rain = 0
KMC5 141537Z 02011KT 06/M01 A3038 RMK A01 T00621011  RH  059%=      5-min Rain = 0
KMC5 141538Z 02012KT 06/M01 A3038 RMK A01 T00621011  RH  060%=      5-min Rain = 0
KMC5 141539Z 02011KT 06/M01 A3038 RMK A01 T00631010  RH  059%=      5-min Rain = 0
KMC5 141540Z 02011KT 07/M01 A3038 RMK A01 T00651010  RH  059%=      5-min Rain = 0
KMC5 141541Z 02010KT 07/M01 A3038 RMK A01 T00651010  RH  059%=      5-min Rain = 0
KMC5 141542Z 02013KT 07/M01 A3038 RMK A01 T00661010  RH  058%=      5-min Rain = 0
KMC5 141543Z 02012KT 07/M01 A3038 RMK A01 T00671010  RH  058%=      5-min Rain = 0
KMC5 141544Z 02012KT 07/M01 A3038 RMK A01 T00671010  RH  058%=      5-min Rain = 0
KMC5 141545Z 02011KT 07/M01 A3038 RMK A01 T00671010  RH  058%=      5-min Rain = 0
KMC5 141546Z 02013KT 07/M01 A3038 RMK A01 T00671010  RH  058%=      5-min Rain = 0
KMC5 141547Z 01012KT 07/M01 A3038 RMK A01 T00661011  RH  058%=      5-min Rain = 0
KMC5 141548Z 02011KT 07/M01 A3038 RMK A01 T00651011  RH  058%=      5-min Rain = 0
KMC5 141549Z 01011KT 07/M01 A3038 RMK A01 T00661010  RH  058%=      5-min Rain = 0
KMC5 141550Z 02013KT 07/M01 A3038 RMK A01 T00661010  RH  058%=      5-min Rain = 0
KMC5 141551Z 02010KT 07/M01 A3038 RMK A01 T00671009  RH  058%=      5-min Rain = 0
KMC5 141552Z 02011KT 07/M01 A3038 RMK A01 T00701009  RH  057%=      5-min Rain = 0
KMC5 141553Z 01012KT 07/M01 A3038 RMK A01 T00711010  RH  056%=      5-min Rain = 0
KMC5 141554Z 02011KT 07/M01 A3039 RMK A01 T00711010  RH  056%=      5-min Rain = 0
KMC5 141555Z 03013KT 07/M01 A3038 RMK A01 T00711011  RH  056%=      5-min Rain = 0
KMC5 141556Z 03014KT 07/M01 A3038 RMK A01 T00691013  RH  056%=      5-min Rain = 0
KMC5 141557Z 02014KT 07/M01 A3039 RMK A01 T00681013  RH  056%=      5-min Rain = 0
KMC5 141558Z 02011KT 07/M01 A3039 RMK A01 T00681012  RH  057%=      5-min Rain = 0
KMC5 141559Z 02010KT 07/M01 A3039 RMK A01 T00691011  RH  056%=      5-min Rain = 0
KMC5 141600Z 02010KT 07/M01 A3039 RMK A01 T00701011  RH  056%=      5-min Rain = 0
KMC5 141601Z 03011KT 07/M01 A3039 RMK A01 T00711012  RH  056%=      5-min Rain = 0
KMC5 141602Z 04010KT 07/M01 A3039 RMK A01 T00701012  RH  056%=      5-min Rain = 0
KMC5 141603Z 04010KT 07/M01 A3039 RMK A01 T00701012  RH  056%=      5-min Rain = 0
KMC5 141604Z 03011KT 07/M01 A3039 RMK A01 T00691012  RH  056%=      5-min Rain = 0
KMC5 141605Z 03011KT 07/M01 A3039 RMK A01 T00701011  RH  056%=      5-min Rain = 0
KMC5 141606Z 02011KT 07/M01 A3039 RMK A01 T00731011  RH  055%=      5-min Rain = 0
KMC5 141607Z 03013KT 07/M01 A3039 RMK A01 T00741013  RH  054%=      5-min Rain = 0
KMC5 141608Z 03011KT 07/M01 A3039 RMK A01 T00731014  RH  054%=      5-min Rain = 0
KMC5 141609Z 04012KT 07/M01 A3039 RMK A01 T00721013  RH  055%=      5-min Rain = 0
KMC5 141610Z 04012KT 07/M01 A3039 RMK A01 T00731013  RH  055%=      5-min Rain = 0
KMC5 141611Z 02011KT 07/M01 A3039 RMK A01 T00741012  RH  054%=      5-min Rain = 0
KMC5 141612Z 03010KT 07/M01 A3039 RMK A01 T00741012  RH  054%=      5-min Rain = 0
KMC5 141613Z 04010KT 08/M01 A3039 RMK A01 T00751011  RH  054%=      5-min Rain = 0
KMC5 141614Z 04008KT 08/M01 A3039 RMK A01 T00751013  RH  054%=      5-min Rain = 0
KMC5 141615Z 02012KT 07/M01 A3039 RMK A01 T00741012  RH  054%=      5-min Rain = 0
KMC5 141616Z 02008KT 08/M01 A3039 RMK A01 T00751012  RH  054%=      5-min Rain = 0
KMC5 141617Z 04009KT 08/M01 A3039 RMK A01 T00771011  RH  054%=      5-min Rain = 0
KMC5 141618Z 04010KT 08/M01 A3039 RMK A01 T00781012  RH  053%=      5-min Rain = 0
KMC5 141619Z 02010G15KT 08/M01 A3039 RMK A01 T00781011  RH  053%=      5-min Rain = 0
KMC5 141620Z 04013KT 08/M01 A3039 RMK A01 T00801012  RH  052%=      5-min Rain = 0
KMC5 141621Z 03013KT 08/M01 A3039 RMK A01 T00791013  RH  052%=      5-min Rain = 0
KMC5 141622Z 03011KT 08/M01 A3039 RMK A01 T00771014  RH  053%=      5-min Rain = 0
KMC5 141623Z 03010KT 08/M01 A3039 RMK A01 T00761012  RH  054%=      5-min Rain = 0
KMC5 141624Z 03011KT 08/M01 A3039 RMK A01 T00781012  RH  053%=      5-min Rain = 0
KMC5 141625Z 02009KT 08/M01 A3039 RMK A01 T00781013  RH  053%=      5-min Rain = 0
KMC5 141626Z 02009KT 08/M01 A304 RMK A01 T00791013  RH  052%=      5-min Rain = 0
KMC5 141627Z 02010KT 08/M01 A304 RMK A01 T00781012  RH  053%=      5-min Rain = 0
KMC5 141628Z 01008KT 08/M01 A304 RMK A01 T00801012  RH  052%=      5-min Rain = 0
KMC5 141629Z 02008KT 08/M01 A304 RMK A01 T00791012  RH  053%=      5-min Rain = 0
KMC5 141630Z 03013KT 08/M01 A3039 RMK A01 T00831011  RH  052%=      5-min Rain = 0
KMC5 141631Z 03011KT 09/M01 A304 RMK A01 T00851013  RH  050%=      5-min Rain = 0
KMC5 141632Z 02012KT 08/M02 A304 RMK A01 T00841015  RH  050%=      5-min Rain = 0
KMC5 141633Z 02013KT 08/M01 A304 RMK A01 T00821014  RH  051%=      5-min Rain = 0
KMC5 141634Z 03012KT 08/M01 A304 RMK A01 T00831014  RH  051%=      5-min Rain = 0
KMC5 141635Z 04010KT 08/M01 A304 RMK A01 T00831014  RH  050%=      5-min Rain = 0
KMC5 141636Z 04010KT 09/M01 A304 RMK A01 T00851013  RH  050%=      5-min Rain = 0
KMC5 141637Z 03008KT 09/M01 A304 RMK A01 T00851013  RH  050%=      5-min Rain = 0
KMC5 141638Z 05010KT 09/M01 A304 RMK A01 T00861013  RH  050%=      5-min Rain = 0
KMC5 141639Z 02011KT 09/M01 A304 RMK A01 T00871012  RH  050%=      5-min Rain = 0
KMC5 141640Z 02012KT 09/M02 A304 RMK A01 T00871015  RH  049%=      5-min Rain = 0
KMC5 141641Z 05013KT 09/M02 A304 RMK A01 T00861015  RH  049%=      5-min Rain = 0
KMC5 141642Z 03012KT 09/M01 A304 RMK A01 T00871014  RH  049%=      5-min Rain = 0
KMC5 141643Z 04011KT 09/M02 A304 RMK A01 T00881015  RH  048%=      5-min Rain = 0
KMC5 141644Z 04010KT 09/M02 A304 RMK A01 T00851016  RH  049%=      5-min Rain = 0
KMC5 141645Z 05011KT 09/M01 A304 RMK A01 T00861014  RH  049%=      5-min Rain = 0
KMC5 141646Z 04012KT 09/M01 A304 RMK A01 T00871014  RH  049%=      5-min Rain = 0
KMC5 141647Z 03013KT 09/M02 A304 RMK A01 T00881015  RH  048%=      5-min Rain = 0
KMC5 141648Z 03010KT 09/M02 A304 RMK A01 T00881016  RH  048%=      5-min Rain = 0
KMC5 141649Z 02010KT 09/M01 A304 RMK A01 T00891014  RH  048%=      5-min Rain = 0
KMC5 141650Z 01011KT 09/M02 A304 RMK A01 T00891015  RH  048%=      5-min Rain = 0
KMC5 141651Z 01012KT 09/M01 A304 RMK A01 T00891014  RH  048%=      5-min Rain = 0
KMC5 141652Z 04009KT 09/M02 A304 RMK A01 T00891015  RH  048%=      5-min Rain = 0
KMC5 141653Z 02012KT 09/M01 A304 RMK A01 T00891014  RH  048%=      5-min Rain = 0
KMC5 141654Z 03011KT 09/M02 A304 RMK A01 T00921015  RH  047%=      5-min Rain = 0
KMC5 141655Z 05010KT 09/M02 A304 RMK A01 T00931015  RH  047%=      5-min Rain = 0
KMC5 141656Z 04008KT 09/M02 A304 RMK A01 T00921015  RH  047%=      5-min Rain = 0
KMC5 141657Z 04008G13KT 09/M02 A304 RMK A01 T00901015  RH  048%=      5-min Rain = 0
KMC5 141658Z 04010KT 09/M02 A304 RMK A01 T00911015  RH  047%=      5-min Rain = 0
KMC5 141659Z 03012KT 09/M02 A304 RMK A01 T00911016  RH  047%=      5-min Rain = 0
KMC5 141700Z 03012KT 09/M02 A304 RMK A01 T00921015  RH  047%=      5-min Rain = 0
KMC5 141701Z 04012KT 09/M02 A304 RMK A01 T00941015  RH  046%=      5-min Rain = 0
KMC5 141702Z 04009KT 09/M02 A304 RMK A01 T00921016  RH  047%=      5-min Rain = 0
KMC5 141703Z 04015KT 09/M02 A304 RMK A01 T00921016  RH  047%=      5-min Rain = 0
KMC5 141704Z 04013KT 09/M02 A304 RMK A01 T00931017  RH  046%=      5-min Rain = 0
KMC5 141705Z 02011KT 09/M02 A3041 RMK A01 T00931017  RH  046%=      5-min Rain = 0
KMC5 141706Z 00011KT 09/M02 A3041 RMK A01 T00921017  RH  046%=      5-min Rain = 0
KMC5 141707Z 03011KT 09/M02 A3041 RMK A01 T00901017  RH  047%=      5-min Rain = 0
KMC5 141708Z 03012KT 09/M02 A3041 RMK A01 T00931015  RH  047%=      5-min Rain = 0
KMC5 141709Z 03010KT 09/M02 A3041 RMK A01 T00921017  RH  046%=      5-min Rain = 0
KMC5 141710Z 05008KT 09/M02 A3041 RMK A01 T00921016  RH  047%=      5-min Rain = 0
KMC5 141711Z 05012KT 10/M01 A3041 RMK A01 T00961014  RH  046%=      5-min Rain = 0
KMC5 141712Z 05010KT 10/M02 A3041 RMK A01 T00981015  RH  045%=      5-min Rain = 0
KMC5 141713Z 03012KT 10/M01 A3041 RMK A01 T01021013  RH  045%=      5-min Rain = 0
KMC5 141714Z 03010KT 10/M02 A3041 RMK A01 T00991017  RH  044%=      5-min Rain = 0
KMC5 141715Z 03008KT 10/M02 A3041 RMK A01 T00951017  RH  045%=      5-min Rain = 0
KMC5 141716Z 04007KT 09/M02 A3041 RMK A01 T00941016  RH  046%=      5-min Rain = 0
KMC5 141717Z 05011KT 10/M01 A304 RMK A01 T00961014  RH  046%=      5-min Rain = 0
KMC5 141718Z 02013KT 10/M01 A304 RMK A01 T01001014  RH  045%=      5-min Rain = 0
KMC5 141719Z 03010KT 10/M02 A3041 RMK A01 T00971017  RH  045%=      5-min Rain = 0
KMC5 141720Z 04007KT 09/M02 A3041 RMK A01 T00941017  RH  046%=      5-min Rain = 0
KMC5 141721Z 05009KT 09/M02 A304 RMK A01 T00931017  RH  046%=      5-min Rain = 0
KMC5 141722Z 06010KT 09/M02 A304 RMK A01 T00921017  RH  046%=      5-min Rain = 0
KMC5 141723Z 05010KT 09/M02 A304 RMK A01 T00921016  RH  047%=      5-min Rain = 0
KMC5 141724Z 04009KT 09/M02 A304 RMK A01 T00921016  RH  047%=      5-min Rain = 0
KMC5 141725Z 03010KT 09/M02 A304 RMK A01 T00931016  RH  047%=      5-min Rain = 0
KMC5 141726Z 02007KT 10/M01 A304 RMK A01 T00961014  RH  046%=      5-min Rain = 0
KMC5 141727Z 01008KT 10/M01 A304 RMK A01 T00991013  RH  046%=      5-min Rain = 0
KMC5 141728Z 04011KT 10/M02 A304 RMK A01 T00991015  RH  045%=      5-min Rain = 0
KMC5 141729Z 04010KT 10/M02 A304 RMK A01 T00961016  RH  045%=      5-min Rain = 0
KMC5 141730Z 01010KT 10/M02 A304 RMK A01 T00951015  RH  046%=      5-min Rain = 0
KMC5 141731Z 03008KT 10/M01 A304 RMK A01 T00971014  RH  046%=      5-min Rain = 0
KMC5 141732Z 05009KT 10/M02 A304 RMK A01 T00961015  RH  046%=      5-min Rain = 0
KMC5 141733Z 05010KT 09/M02 A304 RMK A01 T00941015  RH  046%=      5-min Rain = 0
KMC5 141734Z 03011KT 09/M02 A304 RMK A01 T00941015  RH  047%=      5-min Rain = 0
KMC5 141735Z 03012KT 09/M02 A304 RMK A01 T00941015  RH  046%=      5-min Rain = 0
KMC5 141736Z 03010KT 09/M02 A304 RMK A01 T00931016  RH  046%=      5-min Rain = 0
KMC5 141737Z 04009KT 09/M02 A304 RMK A01 T00931016  RH  047%=      5-min Rain = 0
KMC5 141738Z 04012KT 10/M01 A304 RMK A01 T00951013  RH  047%=      5-min Rain = 0
KMC5 141739Z 03009KT 10/M01 A304 RMK A01 T00971014  RH  046%=      5-min Rain = 0
KMC5 141740Z 01013KT 10/M01 A304 RMK A01 T00991014  RH  045%=      5-min Rain = 0
KMC5 141741Z 01011KT 10/M01 A304 RMK A01 T00991014  RH  045%=      5-min Rain = 0
KMC5 141742Z 02010KT 10/M01 A304 RMK A01 T00981014  RH  046%=      5-min Rain = 0
KMC5 141743Z 02011KT 10/M01 A304 RMK A01 T00971014  RH  046%=      5-min Rain = 0
KMC5 141744Z 01012KT 10/M02 A304 RMK A01 T00951015  RH  046%=      5-min Rain = 0
KMC5 141745Z 01012KT 10/M01 A304 RMK A01 T00971013  RH  046%=      5-min Rain = 0
KMC5 141746Z 02011KT 10/M01 A304 RMK A01 T00981014  RH  046%=      5-min Rain = 0
KMC5 141747Z 03009KT 10/M01 A304 RMK A01 T00981013  RH  046%=      5-min Rain = 0
KMC5 141748Z 04011KT 10/M01 A304 RMK A01 T01011012  RH  045%=      5-min Rain = 0
KMC5 141749Z 04009KT 10/M01 A304 RMK A01 T01001014  RH  045%=      5-min Rain = 0
KMC5 141750Z 02008KT 10/M01 A304 RMK A01 T00991013  RH  046%=      5-min Rain = 0
KMC5 141751Z 01013KT 10/M01 A304 RMK A01 T01021012  RH  045%=      5-min Rain = 0
KMC5 141752Z 01011KT 10/M01 A304 RMK A01 T01021013  RH  044%=      5-min Rain = 0
KMC5 141753Z 01009KT 10/M01 A304 RMK A01 T01021013  RH  045%=      5-min Rain = 0
KMC5 141754Z 02005KT 10/M01 A304 RMK A01 T01021013  RH  045%=      5-min Rain = 0
KMC5 141755Z 03005KT 10/M01 A304 RMK A01 T01011013  RH  045%=      5-min Rain = 0
KMC5 141756Z 01008KT 10/M01 A304 RMK A01 T01021011  RH  045%=      5-min Rain = 0
KMC5 141757Z 04009G14KT 11/M01 A304 RMK A01 T01081009  RH  044%=      5-min Rain = 0
KMC5 141758Z 05013KT 11/M01 A304 RMK A01 T01091013  RH  043%=      5-min Rain = 0
KMC5 141759Z 04010KT 10/M02 A304 RMK A01 T01031015  RH  044%=      5-min Rain = 0
KMC5 141800Z 01008KT 10/M01 A304 RMK A01 T01031013  RH  044%=      5-min Rain = 0
KMC5 141801Z 00006KT 11/M01 A304 RMK A01 T01061011  RH  044%=      5-min Rain = 0
KMC5 141802Z 01007KT 11/M01 A304 RMK A01 T01111009  RH  043%=      5-min Rain = 0
KMC5 141803Z 01009KT 11/M01 A304 RMK A01 T01141012  RH  042%=      5-min Rain = 0
KMC5 141804Z 02009KT 11/M01 A304 RMK A01 T01081014  RH  043%=      5-min Rain = 0
KMC5 141805Z 01010KT 11/M01 A304 RMK A01 T01061013  RH  043%=      5-min Rain = 0
KMC5 141806Z 01009KT 10/M01 A304 RMK A01 T01041014  RH  044%=      5-min Rain = 0
KMC5 141807Z 02008G13KT 10/M01 A3039 RMK A01 T01041013  RH  044%=      5-min Rain = 0
KMC5 141808Z 04013KT 11/M01 A3039 RMK A01 T01051013  RH  044%=      5-min Rain = 0
KMC5 141809Z 04009KT 10/M01 A3039 RMK A01 T01031014  RH  044%=      5-min Rain = 0
KMC5 141810Z 04011KT 10/M01 A3039 RMK A01 T01021013  RH  045%=      5-min Rain = 0
KMC5 141811Z 03008G13KT 10/M01 A3039 RMK A01 T01041013  RH  044%=      5-min Rain = 0
KMC5 141812Z 02009KT 10/M01 A3039 RMK A01 T01041013  RH  044%=      5-min Rain = 0
KMC5 141813Z 05008KT 11/M01 A3039 RMK A01 T01051012  RH  044%=      5-min Rain = 0
KMC5 141814Z 04008KT 10/M01 A3039 RMK A01 T01041013  RH  044%=      5-min Rain = 0
KMC5 141815Z 03007KT 10/M01 A3039 RMK A01 T01021012  RH  045%=      5-min Rain = 0
KMC5 141816Z 03005KT 11/M01 A3039 RMK A01 T01061010  RH  044%=      5-min Rain = 0
KMC5 141817Z 04008G13KT 11/M01 A3039 RMK A01 T01091010  RH  044%=      5-min Rain = 0
KMC5 141818Z 03014KT 11/M01 A3039 RMK A01 T01111011  RH  043%=      5-min Rain = 0
KMC5 141819Z 03012KT 11/M01 A3039 RMK A01 T01091012  RH  043%=      5-min Rain = 0
KMC5 141820Z 02008KT 11/M01 A3039 RMK A01 T01081013  RH  043%=      5-min Rain = 0
KMC5 141821Z 03008KT 11/M01 A3039 RMK A01 T01051013  RH  044%=      5-min Rain = 0
KMC5 141822Z 04009KT 11/M01 A3039 RMK A01 T01051013  RH  044%=      5-min Rain = 0
KMC5 141823Z 00011KT 11/M01 A3039 RMK A01 T01071011  RH  044%=      5-min Rain = 0
KMC5 141824Z 01010KT 11/M01 A3039 RMK A01 T01081013  RH  043%=      5-min Rain = 0
KMC5 141825Z 02010KT 11/M01 A3039 RMK A01 T01061012  RH  044%=      5-min Rain = 0
KMC5 141826Z 02007KT 11/M01 A3039 RMK A01 T01071012  RH  044%=      5-min Rain = 0
KMC5 141827Z 02009KT 11/M01 A3038 RMK A01 T01101010  RH  043%=      5-min Rain = 0
KMC5 141828Z 03010KT 11/M01 A3038 RMK A01 T01131011  RH  042%=      5-min Rain = 0
KMC5 141829Z 02008G13KT 11/M01 A3038 RMK A01 T01131011  RH  042%=      5-min Rain = 0
KMC5 141830Z 01009KT 11/M01 A3038 RMK A01 T01131012  RH  042%=      5-min Rain = 0
KMC5 141831Z 03012KT 11/M01 A3038 RMK A01 T01101012  RH  043%=      5-min Rain = 0
KMC5 141832Z 02009KT 11/M01 A3038 RMK A01 T01081014  RH  043%=      5-min Rain = 0
KMC5 141833Z 02009KT 11/M01 A3038 RMK A01 T01071013  RH  043%=      5-min Rain = 0
KMC5 141834Z 04012KT 11/M01 A3038 RMK A01 T01111011  RH  043%=      5-min Rain = 0
KMC5 141835Z 04013KT 11/M01 A3038 RMK A01 T01101013  RH  042%=      5-min Rain = 0
KMC5 141836Z 03014KT 11/M01 A3038 RMK A01 T01101012  RH  043%=      5-min Rain = 0
KMC5 141837Z 04011KT 11/M01 A3038 RMK A01 T01091012  RH  043%=      5-min Rain = 0
KMC5 141838Z 04012KT 11/M01 A3038 RMK A01 T01081012  RH  043%=      5-min Rain = 0
KMC5 141839Z 03010KT 11/M01 A3038 RMK A01 T01061013  RH  043%=      5-min Rain = 0
KMC5 141840Z 02006KT 11/M01 A3038 RMK A01 T01051013  RH  044%=      5-min Rain = 0
KMC5 141841Z 00006KT 11/M01 A3038 RMK A01 T01051013  RH  044%=      5-min Rain = 0
KMC5 141842Z 02005KT 11/M01 A3038 RMK A01 T01051013  RH  044%=      5-min Rain = 0
KMC5 141843Z 03006KT 10/M01 A3038 RMK A01 T01041012  RH  044%=      5-min Rain = 0
KMC5 141844Z 01009KT 11/M01 A3038 RMK A01 T01081011  RH  044%=      5-min Rain = 0
KMC5 141845Z 00010KT 11/M01 A3038 RMK A01 T01091012  RH  043%=      5-min Rain = 0
KMC5 141846Z 00008KT 11/M01 A3038 RMK A01 T01101011  RH  043%=      5-min Rain = 0
KMC5 141847Z 02009KT 11/M01 A3038 RMK A01 T01121011  RH  042%=      5-min Rain = 0
KMC5 141848Z 03007KT 11/M01 A3038 RMK A01 T01121011  RH  043%=      5-min Rain = 0
KMC5 141849Z 02006KT 11/M01 A3038 RMK A01 T01111012  RH  042%=      5-min Rain = 0
KMC5 141850Z 03003KT 11/M01 A3038 RMK A01 T01101012  RH  043%=      5-min Rain = 0
KMC5 141851Z 05004KT 11/M01 A3038 RMK A01 T01101012  RH  043%=      5-min Rain = 0
KMC5 141852Z 02010KT 11/M01 A3038 RMK A01 T01101012  RH  043%=      5-min Rain = 0
KMC5 141853Z 03011KT 11/M01 A3038 RMK A01 T01111013  RH  042%=      5-min Rain = 0
KMC5 141854Z 03009KT 11/M01 A3038 RMK A01 T01091014  RH  042%=      5-min Rain = 0
KMC5 141855Z 02009KT 11/M01 A3038 RMK A01 T01071013  RH  043%=      5-min Rain = 0
KMC5 141856Z 01004KT 11/M01 A3037 RMK A01 T01091013  RH  043%=      5-min Rain = 0
KMC5 141857Z 02005KT 11/M01 A3037 RMK A01 T01081013  RH  043%=      5-min Rain = 0
KMC5 141858Z 02009KT 11/M01 A3037 RMK A01 T01121009  RH  043%=      5-min Rain = 0
KMC5 141859Z 01009KT 12/M01 A3037 RMK A01 T01161011  RH  041%=      5-min Rain = 0
KMC5 141900Z 01008KT 11/M01 A3037 RMK A01 T01141013  RH  041%=      5-min Rain = 0
KMC5 141901Z 02007KT 11/M01 A3037 RMK A01 T01111012  RH  042%=      5-min Rain = 0
KMC5 141902Z 02008KT 11/M01 A3037 RMK A01 T01101013  RH  043%=      5-min Rain = 0
KMC5 141903Z 03010KT 11/M01 A3037 RMK A01 T01111012  RH  043%=      5-min Rain = 0
KMC5 141904Z 02010KT 11/M01 A3037 RMK A01 T01111013  RH  042%=      5-min Rain = 0
KMC5 141905Z 01008G13KT 11/M01 A3037 RMK A01 T01111012  RH  042%=      5-min Rain = 0
KMC5 141906Z 02008KT 12/M01 A3037 RMK A01 T01161009  RH  042%=      5-min Rain = 0
KMC5 141907Z 02005KT 12/M01 A3037 RMK A01 T01181012  RH  041%=      5-min Rain = 0
KMC5 141908Z 02007G14KT 11/M01 A3037 RMK A01 T01141014  RH  041%=      5-min Rain = 0
KMC5 141909Z 02011KT 11/M01 A3037 RMK A01 T01121013  RH  042%=      5-min Rain = 0
KMC5 141910Z 03009KT 12/M01 A3037 RMK A01 T01161011  RH  041%=      5-min Rain = 0
KMC5 141911Z 01012KT 12/M01 A3036 RMK A01 T01171013  RH  040%=      5-min Rain = 0
KMC5 141912Z 01012KT 12/M01 A3036 RMK A01 T01171013  RH  040%=      5-min Rain = 0
KMC5 141913Z 00011KT 12/M01 A3036 RMK A01 T01161014  RH  040%=      5-min Rain = 0
KMC5 141914Z 00008KT 11/M02 A3036 RMK A01 T01131015  RH  041%=      5-min Rain = 0
KMC5 141915Z 02012KT 11/M01 A3036 RMK A01 T01121013  RH  042%=      5-min Rain = 0
KMC5 141916Z 01010KT 11/M01 A3036 RMK A01 T01131013  RH  041%=      5-min Rain = 0
KMC5 141917Z 00007KT 11/M01 A3036 RMK A01 T01121013  RH  042%=      5-min Rain = 0
KMC5 141918Z 00009KT 12/M01 A3036 RMK A01 T01151011  RH  042%=      5-min Rain = 0
KMC5 141919Z 01008KT 12/M01 A3036 RMK A01 T01161012  RH  041%=      5-min Rain = 0
KMC5 141920Z 01006KT 12/M01 A3036 RMK A01 T01151013  RH  041%=      5-min Rain = 0
KMC5 141921Z 01007KT 11/M01 A3036 RMK A01 T01131013  RH  042%=      5-min Rain = 0
KMC5 141922Z 35008KT 12/M01 A3036 RMK A01 T01151012  RH  041%=      5-min Rain = 0
KMC5 141923Z 01007KT 11/M01 A3036 RMK A01 T01141013  RH  041%=      5-min Rain = 0
KMC5 141924Z 01007KT 11/M01 A3036 RMK A01 T01141013  RH  041%=      5-min Rain = 0
KMC5 141925Z 00006KT 11/M01 A3036 RMK A01 T01141012  RH  041%=      5-min Rain = 0
KMC5 141926Z 04009KT 12/M01 A3036 RMK A01 T01161011  RH  041%=      5-min Rain = 0
KMC5 141927Z 05014KT 12/M01 A3036 RMK A01 T01161013  RH  041%=      5-min Rain = 0
KMC5 141928Z 07012KT 12/M01 A3036 RMK A01 T01161013  RH  041%=      5-min Rain = 0
KMC5 141929Z 06009KT 12/M01 A3036 RMK A01 T01151013  RH  041%=      5-min Rain = 0
KMC5 141930Z 06006KT 11/M01 A3036 RMK A01 T01141013  RH  041%=      5-min Rain = 0
KMC5 141931Z 08005KT 11/M01 A3036 RMK A01 T01141013  RH  041%=      5-min Rain = 0
KMC5 141932Z 05008KT 11/M01 A3036 RMK A01 T01141013  RH  041%=      5-min Rain = 0
KMC5 141933Z 04011KT 12/M01 A3036 RMK A01 T01161012  RH  041%=      5-min Rain = 0
KMC5 141934Z 03009KT 12/M01 A3036 RMK A01 T01151014  RH  041%=      5-min Rain = 0
KMC5 141935Z 04009KT 12/M01 A3036 RMK A01 T01151013  RH  041%=      5-min Rain = 0
KMC5 141936Z 03009KT 12/M01 A3036 RMK A01 T01171012  RH  041%=      5-min Rain = 0
KMC5 141937Z 02005KT 12/M01 A3036 RMK A01 T01171012  RH  041%=      5-min Rain = 0
KMC5 141938Z 01003KT 12/M01 A3036 RMK A01 T01181012  RH  041%=      5-min Rain = 0
KMC5 141939Z 01006KT 12/M01 A3036 RMK A01 T01181011  RH  041%=      5-min Rain = 0
KMC5 141940Z 03006KT 12/M01 A3036 RMK A01 T01191012  RH  040%=      5-min Rain = 0
KMC5 141941Z 03008KT 12/M01 A3036 RMK A01 T01201011  RH  040%=      5-min Rain = 0
KMC5 141942Z 03010KT 12/M01 A3036 RMK A01 T01241010  RH  040%=      5-min Rain = 0
KMC5 141943Z 02008KT 13/M01 A3036 RMK A01 T01251012  RH  039%=      5-min Rain = 0
KMC5 141944Z 03011KT 12/M01 A3036 RMK A01 T01241013  RH  039%=      5-min Rain = 0
KMC5 141945Z 04009KT 12/M01 A3036 RMK A01 T01211014  RH  039%=      5-min Rain = 0
KMC5 141946Z 04010KT 12/M02 A3036 RMK A01 T01191016  RH  039%=      5-min Rain = 0
KMC5 141947Z 01010KT 12/M02 A3036 RMK A01 T01161016  RH  040%=      5-min Rain = 0
KMC5 141948Z 36007KT 11/M02 A3036 RMK A01 T01131017  RH  040%=      5-min Rain = 0
KMC5 141949Z 01007KT 11/M02 A3036 RMK A01 T01121015  RH  041%=      5-min Rain = 0
KMC5 141950Z 04006KT 11/M01 A3036 RMK A01 T01131014  RH  041%=      5-min Rain = 0
KMC5 141951Z 02010KT 12/M01 A3036 RMK A01 T01151013  RH  041%=      5-min Rain = 0
KMC5 141952Z 01012KT 12/M01 A3036 RMK A01 T01191012  RH  040%=      5-min Rain = 0
KMC5 141953Z 02010KT 12/M01 A3036 RMK A01 T01181014  RH  040%=      5-min Rain = 0
KMC5 141954Z 03009KT 11/M02 A3036 RMK A01 T01141015  RH  040%=      5-min Rain = 0
KMC5 141955Z 04009KT 11/M02 A3036 RMK A01 T01141015  RH  041%=      5-min Rain = 0
KMC5 141956Z 05007G12KT 11/M02 A3036 RMK A01 T01141016  RH  040%=      5-min Rain = 0
KMC5 141957Z 04012KT 11/M01 A3036 RMK A01 T01141014  RH  041%=      5-min Rain = 0
KMC5 141958Z 03009KT 12/M01 A3036 RMK A01 T01171013  RH  041%=      5-min Rain = 0
KMC5 141959Z 03005KT 12/M01 A3036 RMK A01 T01191012  RH  040%=      5-min Rain = 0
KMC5 142000Z 06006KT 12/M01 A3036 RMK A01 T01211013  RH  040%=      5-min Rain = 0
KMC5 142001Z 02008KT 12/M01 A3036 RMK A01 T01221012  RH  040%=      5-min Rain = 0
KMC5 142002Z 02007KT 12/M01 A3036 RMK A01 T01201014  RH  039%=      5-min Rain = 0
KMC5 142003Z 04009KT 12/M01 A3036 RMK A01 T01181013  RH  040%=      5-min Rain = 0
KMC5 142004Z 05008KT 12/M01 A3036 RMK A01 T01191014  RH  040%=      5-min Rain = 0
KMC5 142005Z 03007KT 12/M02 A3036 RMK A01 T01161015  RH  040%=      5-min Rain = 0
KMC5 142006Z 02007KT 12/M01 A3036 RMK A01 T01151014  RH  041%=      5-min Rain = 0
KMC5 142007Z 03007KT 12/M01 A3036 RMK A01 T01151014  RH  041%=      5-min Rain = 0
KMC5 142008Z 06006KT 11/M01 A3036 RMK A01 T01141014  RH  041%=      5-min Rain = 0
KMC5 142009Z 06008G13KT 12/M01 A3036 RMK A01 T01171012  RH  041%=      5-min Rain = 0
KMC5 142010Z 06009KT 12/M01 A3036 RMK A01 T01181013  RH  040%=      5-min Rain = 0
KMC5 142011Z 04009KT 12/M01 A3036 RMK A01 T01191013  RH  040%=      5-min Rain = 0
KMC5 142012Z 04008KT 12/M02 A3036 RMK A01 T01171015  RH  040%=      5-min Rain = 0
KMC5 142013Z 02007KT 12/M01 A3036 RMK A01 T01161014  RH  040%=      5-min Rain = 0
KMC5 142014Z 02007KT 12/M01 A3036 RMK A01 T01171013  RH  040%=      5-min Rain = 0
KMC5 142015Z 04011KT 12/M01 A3035 RMK A01 T01191013  RH  040%=      5-min Rain = 0
KMC5 142016Z 05009KT 12/M01 A3035 RMK A01 T01191013  RH  040%=      5-min Rain = 0
KMC5 142017Z 02010KT 12/M01 A3035 RMK A01 T01201014  RH  040%=      5-min Rain = 0
KMC5 142018Z 03009KT 12/M01 A3035 RMK A01 T01191014  RH  040%=      5-min Rain = 0
KMC5 142019Z 02010KT 12/M01 A3035 RMK A01 T01191014  RH  040%=      5-min Rain = 0
KMC5 142020Z 02010KT 12/M01 A3035 RMK A01 T01181014  RH  040%=      5-min Rain = 0
KMC5 142021Z 03007KT 12/M02 A3035 RMK A01 T01171015  RH  040%=      5-min Rain = 0
KMC5 142022Z 04006KT 12/M01 A3035 RMK A01 T01181014  RH  040%=      5-min Rain = 0
KMC5 142023Z 04004KT 12/M02 A3035 RMK A01 T01181015  RH  040%=      5-min Rain = 0
KMC5 142024Z 03009KT 12/M02 A3035 RMK A01 T01171015  RH  040%=      5-min Rain = 0
KMC5 142025Z 04011KT 12/M02 A3035 RMK A01 T01171015  RH  040%=      5-min Rain = 0
KMC5 142026Z 04009KT 12/M02 A3035 RMK A01 T01161016  RH  040%=      5-min Rain = 0
KMC5 142027Z 05007KT 12/M02 A3035 RMK A01 T01151016  RH  040%=      5-min Rain = 0
KMC5 142028Z 03010KT 11/M02 A3035 RMK A01 T01141015  RH  040%=      5-min Rain = 0
KMC5 142029Z 03005KT 11/M02 A3035 RMK A01 T01141016  RH  040%=      5-min Rain = 0
KMC5 142030Z 03006KT 11/M02 A3035 RMK A01 T01141015  RH  041%=      5-min Rain = 0
KMC5 142031Z 03007KT 12/M01 A3035 RMK A01 T01161014  RH  040%=      5-min Rain = 0
KMC5 142032Z 03007KT 12/M01 A3035 RMK A01 T01181014  RH  040%=      5-min Rain = 0
KMC5 142033Z 01009KT 12/M01 A3035 RMK A01 T01201013  RH  039%=      5-min Rain = 0
KMC5 142034Z 01006KT 12/M01 A3035 RMK A01 T01211014  RH  039%=      5-min Rain = 0
KMC5 142035Z 02006KT 12/M02 A3035 RMK A01 T01191015  RH  039%=      5-min Rain = 0
KMC5 142036Z 02006KT 12/M02 A3035 RMK A01 T01171015  RH  040%=      5-min Rain = 0
KMC5 142037Z 05003KT 12/M02 A3035 RMK A01 T01161016  RH  040%=      5-min Rain = 0
KMC5 142038Z 05005KT 12/M02 A3035 RMK A01 T01151015  RH  040%=      5-min Rain = 0
KMC5 142039Z 04009KT 12/M02 A3035 RMK A01 T01151015  RH  040%=      5-min Rain = 0
KMC5 142040Z 04011KT 12/M02 A3035 RMK A01 T01161016  RH  040%=      5-min Rain = 0
KMC5 142041Z 05010KT 12/M02 A3035 RMK A01 T01171015  RH  040%=      5-min Rain = 0
KMC5 142042Z 05007KT 12/M02 A3035 RMK A01 T01171016  RH  040%=      5-min Rain = 0
KMC5 142043Z 04008KT 12/M02 A3035 RMK A01 T01161016  RH  040%=      5-min Rain = 0
KMC5 142044Z 04008KT 12/M02 A3035 RMK A01 T01161016  RH  040%=      5-min Rain = 0
KMC5 142045Z 06006KT 11/M02 A3035 RMK A01 T01141016  RH  040%=      5-min Rain = 0
KMC5 142046Z 05007KT 11/M02 A3035 RMK A01 T01131016  RH  040%=      5-min Rain = 0
KMC5 142047Z 05003KT 11/M02 A3035 RMK A01 T01141016  RH  040%=      5-min Rain = 0
KMC5 142048Z 07007KT 12/M02 A3035 RMK A01 T01151015  RH  041%=      5-min Rain = 0
KMC5 142049Z 07007KT 12/M02 A3035 RMK A01 T01181015  RH  040%=      5-min Rain = 0
KMC5 142050Z 06007KT 12/M02 A3035 RMK A01 T01161015  RH  040%=      5-min Rain = 0
KMC5 142051Z 05007KT 12/M01 A3035 RMK A01 T01181014  RH  040%=      5-min Rain = 0
KMC5 142052Z 06007KT 12/M01 A3035 RMK A01 T01191014  RH  040%=      5-min Rain = 0
KMC5 142053Z 05007KT 12/M01 A3035 RMK A01 T01191014  RH  040%=      5-min Rain = 0
KMC5 142054Z 03007KT 12/M01 A3035 RMK A01 T01211013  RH  039%=      5-min Rain = 0
KMC5 142055Z 36006KT 12/M01 A3035 RMK A01 T01231014  RH  039%=      5-min Rain = 0
KMC5 142056Z 00007KT 12/M02 A3035 RMK A01 T01211015  RH  039%=      5-min Rain = 0
KMC5 142057Z 02003KT 12/M02 A3035 RMK A01 T01191015  RH  039%=      5-min Rain = 0
KMC5 142058Z 04003KT 12/M01 A3035 RMK A01 T01191014  RH  040%=      5-min Rain = 0
KMC5 142059Z 03006KT 12/M02 A3035 RMK A01 T01191015  RH  039%=      5-min Rain = 0
KMC5 142100Z 04007KT 12/M02 A3035 RMK A01 T01171016  RH  040%=      5-min Rain = 0
KMC5 142101Z 05007KT 12/M01 A3035 RMK A01 T01191014  RH  040%=      5-min Rain = 0
KMC5 142102Z 05007KT 12/M02 A3035 RMK A01 T01211015  RH  039%=      5-min Rain = 0
KMC5 142103Z 05006KT 12/M02 A3035 RMK A01 T01181017  RH  039%=      5-min Rain = 0
KMC5 142104Z 09003KT 12/M02 A3035 RMK A01 T01151017  RH  040%=      5-min Rain = 0
KMC5 142105Z 06006KT 11/M02 A3035 RMK A01 T01141017  RH  040%=      5-min Rain = 0
KMC5 142106Z 05006KT 12/M02 A3035 RMK A01 T01151016  RH  040%=      5-min Rain = 0
KMC5 142107Z 07006KT 12/M02 A3036 RMK A01 T01171015  RH  040%=      5-min Rain = 0
KMC5 142108Z 07006KT 12/M02 A3036 RMK A01 T01181016  RH  039%=      5-min Rain = 0
KMC5 142109Z 04006KT 12/M02 A3035 RMK A01 T01181015  RH  040%=      5-min Rain = 0
KMC5 142110Z 04007KT 12/M02 A3035 RMK A01 T01181016  RH  039%=      5-min Rain = 0
KMC5 142111Z 04010KT 12/M02 A3035 RMK A01 T01191016  RH  039%=      5-min Rain = 0
KMC5 142112Z 04007KT 12/M02 A3035 RMK A01 T01181018  RH  039%=      5-min Rain = 0
KMC5 142113Z 03006KT 12/M02 A3036 RMK A01 T01151019  RH  039%=      5-min Rain = 0
KMC5 142114Z 04005KT 11/M02 A3036 RMK A01 T01131018  RH  040%=      5-min Rain = 0
KMC5 142115Z 02005KT 11/M02 A3036 RMK A01 T01141017  RH  040%=      5-min Rain = 0
KMC5 142116Z 01007KT 12/M02 A3035 RMK A01 T01171015  RH  040%=      5-min Rain = 0
KMC5 142117Z 01007KT 12/M02 A3035 RMK A01 T01181017  RH  039%=      5-min Rain = 0
KMC5 142118Z 01008KT 12/M02 A3035 RMK A01 T01181017  RH  039%=      5-min Rain = 0
KMC5 142119Z 01006KT 12/M02 A3035 RMK A01 T01181017  RH  039%=      5-min Rain = 0
KMC5 142120Z 05004KT 12/M02 A3035 RMK A01 T01171016  RH  040%=      5-min Rain = 0
KMC5 142121Z 04002KT 12/M02 A3035 RMK A01 T01171015  RH  040%=      5-min Rain = 0
KMC5 142122Z 02004KT 12/M02 A3035 RMK A01 T01191015  RH  039%=      5-min Rain = 0
KMC5 142123Z 01005KT 12/M02 A3035 RMK A01 T01191016  RH  039%=      5-min Rain = 0
KMC5 142124Z 00006KT 12/M02 A3035 RMK A01 T01201016  RH  039%=      5-min Rain = 0
KMC5 142125Z 34005KT 12/M02 A3035 RMK A01 T01201016  RH  039%=      5-min Rain = 0
KMC5 142126Z 33003KT 12/M02 A3035 RMK A01 T01181018  RH  039%=      5-min Rain = 0
KMC5 142127Z 35003KT 12/M02 A3035 RMK A01 T01161017  RH  039%=      5-min Rain = 0
KMC5 142128Z 01004KT 12/M02 A3035 RMK A01 T01171017  RH  039%=      5-min Rain = 0
KMC5 142129Z 02004KT 12/M02 A3035 RMK A01 T01171017  RH  039%=      5-min Rain = 0
KMC5 142130Z 05006KT 12/M02 A3035 RMK A01 T01171017  RH  039%=      5-min Rain = 0
KMC5 142131Z 06004KT 12/M02 A3035 RMK A01 T01171017  RH  039%=      5-min Rain = 0
KMC5 142132Z 02004KT 12/M02 A3035 RMK A01 T01151017  RH  040%=      5-min Rain = 0
KMC5 142133Z 01006KT 12/M02 A3035 RMK A01 T01151016  RH  040%=      5-min Rain = 0
KMC5 142134Z 01006KT 12/M02 A3035 RMK A01 T01171015  RH  040%=      5-min Rain = 0
KMC5 142135Z 04006KT 12/M01 A3035 RMK A01 T01181014  RH  040%=      5-min Rain = 0
KMC5 142136Z 05009KT 12/M01 A3035 RMK A01 T01211014  RH  039%=      5-min Rain = 0
KMC5 142137Z 05009KT 12/M02 A3035 RMK A01 T01211016  RH  039%=      5-min Rain = 0
KMC5 142138Z 05007KT 12/M02 A3035 RMK A01 T01171017  RH  039%=      5-min Rain = 0
KMC5 142139Z 02006KT 12/M02 A3036 RMK A01 T01161017  RH  040%=      5-min Rain = 0
KMC5 142140Z 02004KT 12/M02 A3036 RMK A01 T01161017  RH  040%=      5-min Rain = 0
KMC5 142141Z 01003KT 12/M02 A3036 RMK A01 T01151017  RH  040%=      5-min Rain = 0
KMC5 142142Z 01003KT 12/M02 A3036 RMK A01 T01151017  RH  040%=      5-min Rain = 0
KMC5 142143Z 01003KT 12/M02 A3036 RMK A01 T01151017  RH  040%=      5-min Rain = 0
KMC5 142144Z 05004KT 12/M02 A3036 RMK A01 T01151016  RH  040%=      5-min Rain = 0
KMC5 142145Z 06005KT 12/M02 A3035 RMK A01 T01161016  RH  040%=      5-min Rain = 0
KMC5 142146Z 06005KT 12/M02 A3035 RMK A01 T01171017  RH  039%=      5-min Rain = 0
KMC5 142147Z 06004KT 12/M02 A3035 RMK A01 T01151018  RH  039%=      5-min Rain = 0
KMC5 142148Z 07004KT 12/M02 A3035 RMK A01 T01151017  RH  040%=      5-min Rain = 0
KMC5 142149Z 06005KT 12/M02 A3035 RMK A01 T01171016  RH  039%=      5-min Rain = 0
KMC5 142150Z 07006KT 12/M02 A3035 RMK A01 T01181017  RH  039%=      5-min Rain = 0
KMC5 142151Z 09005KT 12/M02 A3035 RMK A01 T01181017  RH  039%=      5-min Rain = 0
KMC5 142152Z 09003KT 12/M02 A3035 RMK A01 T01171019  RH  039%=      5-min Rain = 0
KMC5 142153Z 08002KT 12/M02 A3035 RMK A01 T01151020  RH  039%=      5-min Rain = 0
KMC5 142154Z 03001KT 11/M02 A3035 RMK A01 T01141019  RH  039%=      5-min Rain = 0
KMC5 142155Z 06001KT 12/M02 A3036 RMK A01 T01151019  RH  039%=      5-min Rain = 0
KMC5 142156Z 07003KT 12/M02 A3036 RMK A01 T01161017  RH  039%=      5-min Rain = 0
KMC5 142157Z 07004KT 12/M02 A3036 RMK A01 T01181017  RH  039%=      5-min Rain = 0
KMC5 142158Z 06005KT 12/M02 A3036 RMK A01 T01191017  RH  039%=      5-min Rain = 0
KMC5 142159Z 03006KT 12/M02 A3036 RMK A01 T01201017  RH  039%=      5-min Rain = 0
KMC5 142200Z 04008KT 12/M02 A3036 RMK A01 T01201017  RH  038%=      5-min Rain = 0
KMC5 142201Z 03006KT 12/M02 A3036 RMK A01 T01191019  RH  038%=      5-min Rain = 0
KMC5 142202Z 04007KT 12/M02 A3036 RMK A01 T01161019  RH  039%=      5-min Rain = 0
KMC5 142203Z 04007KT 12/M02 A3036 RMK A01 T01161019  RH  039%=      5-min Rain = 0
KMC5 142204Z 04005KT 12/M02 A3036 RMK A01 T01161020  RH  039%=      5-min Rain = 0
KMC5 142205Z 03004KT 12/M02 A3035 RMK A01 T01151019  RH  039%=      5-min Rain = 0
KMC5 142206Z 03003KT 11/M02 A3035 RMK A01 T01141019  RH  039%=      5-min Rain = 0
KMC5 142207Z 05005KT 12/M02 A3035 RMK A01 T01161018  RH  039%=      5-min Rain = 0
KMC5 142208Z 06005KT 12/M02 A3035 RMK A01 T01171019  RH  039%=      5-min Rain = 0
KMC5 142209Z 08005KT 12/M02 A3035 RMK A01 T01171019  RH  039%=      5-min Rain = 0
KMC5 142210Z 06003KT 12/M02 A3035 RMK A01 T01161019  RH  039%=      5-min Rain = 0
KMC5 142211Z 06005KT 12/M02 A3035 RMK A01 T01161018  RH  039%=      5-min Rain = 0
KMC5 142212Z 04007KT 12/M02 A3035 RMK A01 T01161018  RH  039%=      5-min Rain = 0
KMC5 142213Z 04006KT 12/M02 A3035 RMK A01 T01171018  RH  039%=      5-min Rain = 0
KMC5 142214Z 05006KT 12/M02 A3035 RMK A01 T01161017  RH  039%=      5-min Rain = 0
KMC5 142215Z 05006KT 12/M02 A3035 RMK A01 T01161017  RH  039%=      5-min Rain = 0
KMC5 142216Z 06006KT 12/M02 A3035 RMK A01 T01161018  RH  039%=      5-min Rain = 0
KMC5 142217Z 06007KT 12/M02 A3035 RMK A01 T01161018  RH  039%=      5-min Rain = 0
KMC5 142218Z 06005KT 12/M02 A3035 RMK A01 T01151018  RH  039%=      5-min Rain = 0
KMC5 142219Z 06004KT 12/M02 A3035 RMK A01 T01151018  RH  040%=      5-min Rain = 0
KMC5 142220Z 04004KT 12/M02 A3035 RMK A01 T01151017  RH  040%=      5-min Rain = 0
KMC5 142221Z 04005KT 12/M02 A3035 RMK A01 T01151018  RH  040%=      5-min Rain = 0
KMC5 142222Z 05004KT 12/M02 A3035 RMK A01 T01151018  RH  040%=      5-min Rain = 0
KMC5 142223Z 05003KT 12/M02 A3035 RMK A01 T01151018  RH  039%=      5-min Rain = 0
KMC5 142224Z 05003KT 12/M02 A3035 RMK A01 T01151018  RH  039%=      5-min Rain = 0
KMC5 142225Z 05002KT 12/M02 A3035 RMK A01 T01151018  RH  039%=      5-min Rain = 0
KMC5 142226Z 06002KT 12/M02 A3035 RMK A01 T01151018  RH  040%=      5-min Rain = 0
KMC5 142227Z 07002KT 12/M02 A3035 RMK A01 T01151018  RH  039%=      5-min Rain = 0
KMC5 142228Z 08002KT 11/M02 A3035 RMK A01 T01141019  RH  040%=      5-min Rain = 0
KMC5 142229Z 09002KT 11/M02 A3035 RMK A01 T01141018  RH  040%=      5-min Rain = 0
KMC5 142230Z 06004KT 12/M02 A3035 RMK A01 T01151018  RH  040%=      5-min Rain = 0
KMC5 142231Z 05002KT 12/M02 A3035 RMK A01 T01151018  RH  040%=      5-min Rain = 0
KMC5 142232Z 05003KT 11/M02 A3035 RMK A01 T01141018  RH  040%=      5-min Rain = 0
KMC5 142233Z 06003KT 11/M02 A3035 RMK A01 T01141018  RH  040%=      5-min Rain = 0
KMC5 142234Z 07003KT 12/M02 A3035 RMK A01 T01151018  RH  040%=      5-min Rain = 0
KMC5 142235Z 10002KT 12/M02 A3035 RMK A01 T01151018  RH  040%=      5-min Rain = 0
KMC5 142236Z 10004KT 12/M02 A3035 RMK A01 T01151018  RH  039%=      5-min Rain = 0
KMC5 142237Z 07004KT 12/M02 A3035 RMK A01 T01151019  RH  039%=      5-min Rain = 0
KMC5 142238Z 04005KT 12/M02 A3035 RMK A01 T01151020  RH  039%=      5-min Rain = 0
KMC5 142239Z 04005KT 11/M02 A3035 RMK A01 T01141019  RH  039%=      5-min Rain = 0
KMC5 142240Z 05006KT 11/M02 A3035 RMK A01 T01141019  RH  039%=      5-min Rain = 0
KMC5 142241Z 06006KT 11/M02 A3035 RMK A01 T01131020  RH  040%=      5-min Rain = 0
KMC5 142242Z 07005KT 11/M02 A3035 RMK A01 T01121020  RH  040%=      5-min Rain = 0
KMC5 142243Z 06007KT 11/M02 A3035 RMK A01 T01121020  RH  040%=      5-min Rain = 0
KMC5 142244Z 05007KT 11/M02 A3035 RMK A01 T01111020  RH  040%=      5-min Rain = 0
KMC5 142245Z 05006KT 11/M02 A3035 RMK A01 T01111020  RH  040%=      5-min Rain = 0
KMC5 142246Z 05005KT 11/M02 A3035 RMK A01 T01111019  RH  040%=      5-min Rain = 0
KMC5 142247Z 04005KT 11/M02 A3035 RMK A01 T01101019  RH  040%=      5-min Rain = 0
KMC5 142248Z 06005KT 11/M02 A3035 RMK A01 T01101020  RH  040%=      5-min Rain = 0
KMC5 142249Z 05005KT 11/M02 A3035 RMK A01 T01101020  RH  040%=      5-min Rain = 0
KMC5 142250Z 05004KT 11/M02 A3035 RMK A01 T01091021  RH  040%=      5-min Rain = 0
KMC5 142251Z 06004KT 11/M02 A3035 RMK A01 T01091020  RH  040%=      5-min Rain = 0
KMC5 142252Z 06003KT 11/M02 A3035 RMK A01 T01091020  RH  040%=      5-min Rain = 0
KMC5 142253Z 07002KT 11/M02 A3035 RMK A01 T01091020  RH  041%=      5-min Rain = 0
KMC5 142254Z 08002KT 11/M02 A3035 RMK A01 T01091020  RH  041%=      5-min Rain = 0
KMC5 142255Z 06003KT 11/M02 A3035 RMK A01 T01091020  RH  040%=      5-min Rain = 0
KMC5 142256Z 06003KT 11/M02 A3035 RMK A01 T01091020  RH  040%=      5-min Rain = 0
KMC5 142257Z 06005KT 11/M02 A3035 RMK A01 T01091021  RH  040%=      5-min Rain = 0
KMC5 142258Z 06004KT 11/M02 A3035 RMK A01 T01081021  RH  041%=      5-min Rain = 0
KMC5 142259Z 06005KT 11/M02 A3036 RMK A01 T01071021  RH  041%=      5-min Rain = 0
KMC5 142300Z 07003KT 11/M02 A3036 RMK A01 T01061021  RH  041%=      5-min Rain = 0
KMC5 142301Z 07003KT 11/M02 A3036 RMK A01 T01061021  RH  041%=      5-min Rain = 0
KMC5 142302Z 08003KT 11/M02 A3036 RMK A01 T01061021  RH  041%=      5-min Rain = 0
KMC5 142303Z 08003KT 11/M02 A3035 RMK A01 T01061021  RH  041%=      5-min Rain = 0
KMC5 142304Z 08003KT 11/M02 A3035 RMK A01 T01051021  RH  041%=      5-min Rain = 0
KMC5 142305Z 08004KT 11/M02 A3035 RMK A01 T01051021  RH  041%=      5-min Rain = 0
KMC5 142306Z 08004KT 11/M02 A3035 RMK A01 T01051021  RH  041%=      5-min Rain = 0
KMC5 142307Z 08004KT 11/M02 A3036 RMK A01 T01051021  RH  041%=      5-min Rain = 0
KMC5 142308Z 09005KT 10/M02 A3036 RMK A01 T01041021  RH  041%=      5-min Rain = 0
KMC5 142309Z 08004KT 10/M02 A3036 RMK A01 T01041021  RH  042%=      5-min Rain = 0
KMC5 142310Z 09004KT 10/M02 A3036 RMK A01 T01041021  RH  042%=      5-min Rain = 0
KMC5 142311Z 09005KT 10/M02 A3036 RMK A01 T01031021  RH  042%=      5-min Rain = 0
KMC5 142312Z 08005KT 10/M02 A3036 RMK A01 T01021021  RH  042%=      5-min Rain = 0
KMC5 142313Z 08005KT 10/M02 A3036 RMK A01 T01021021  RH  042%=      5-min Rain = 0
KMC5 142314Z 08004KT 10/M02 A3036 RMK A01 T01011021  RH  042%=      5-min Rain = 0
KMC5 142315Z 08004KT 10/M02 A3036 RMK A01 T01001022  RH  042%=      5-min Rain = 0
KMC5 142316Z 08004KT 10/M02 A3036 RMK A01 T00991022  RH  043%=      5-min Rain = 0
KMC5 142317Z 08004KT 10/M02 A3036 RMK A01 T00991022  RH  043%=      5-min Rain = 0
KMC5 142318Z 08004KT 10/M02 A3036 RMK A01 T00981022  RH  043%=      5-min Rain = 0
KMC5 142319Z 08004KT 10/M02 A3036 RMK A01 T00981022  RH  043%=      5-min Rain = 0
KMC5 142320Z 08004KT 10/M02 A3036 RMK A01 T00981021  RH  043%=      5-min Rain = 0
KMC5 142321Z 07003KT 10/M02 A3036 RMK A01 T00981021  RH  043%=      5-min Rain = 0
KMC5 142322Z 08003KT 10/M02 A3036 RMK A01 T00981022  RH  043%=      5-min Rain = 0
KMC5 142323Z 08003KT 10/M02 A3036 RMK A01 T00981021  RH  043%=      5-min Rain = 0
KMC5 142324Z 08003KT 10/M02 A3036 RMK A01 T00981021  RH  043%=      5-min Rain = 0
KMC5 142325Z 08003KT 10/M02 A3036 RMK A01 T00981021  RH  043%=      5-min Rain = 0
KMC5 142326Z 08003KT 10/M02 A3036 RMK A01 T00981021  RH  043%=      5-min Rain = 0
KMC5 142327Z 07003KT 10/M02 A3036 RMK A01 T00981021  RH  043%=      5-min Rain = 0
KMC5 142328Z 07004KT 10/M02 A3036 RMK A01 T00981021  RH  043%=      5-min Rain = 0
KMC5 142329Z 06004KT 10/M02 A3036 RMK A01 T00981021  RH  043%=      5-min Rain = 0
KMC5 142330Z 06003KT 10/M02 A3036 RMK A01 T00991021  RH  043%=      5-min Rain = 0
KMC5 142331Z 06003KT 10/M02 A3036 RMK A01 T00981021  RH  043%=      5-min Rain = 0
KMC5 142332Z 06003KT 10/M02 A3036 RMK A01 T00961022  RH  043%=      5-min Rain = 0
KMC5 142333Z 06003KT 09/M02 A3036 RMK A01 T00941022  RH  044%=      5-min Rain = 0
KMC5 142334Z 06003KT 09/M02 A3036 RMK A01 T00941022  RH  044%=      5-min Rain = 0
KMC5 142335Z 06003KT 09/M02 A3036 RMK A01 T00941021  RH  044%=      5-min Rain = 0
KMC5 142336Z 06003KT 09/M02 A3036 RMK A01 T00941021  RH  044%=      5-min Rain = 0
KMC5 142337Z 07003KT 09/M02 A3036 RMK A01 T00941021  RH  044%=      5-min Rain = 0
KMC5 142338Z 07003KT 09/M02 A3036 RMK A01 T00941021  RH  044%=      5-min Rain = 0
KMC5 142339Z 08003KT 09/M02 A3036 RMK A01 T00941021  RH  044%=      5-min Rain = 0
KMC5 142340Z 08003KT 09/M02 A3036 RMK A01 T00941021  RH  044%=      5-min Rain = 0
KMC5 142341Z 08003KT 10/M02 A3036 RMK A01 T00951021  RH  044%=      5-min Rain = 0
KMC5 142342Z 07003KT 10/M02 A3036 RMK A01 T00951021  RH  044%=      5-min Rain = 0
KMC5 142343Z 07003KT 10/M02 A3036 RMK A01 T00951021  RH  044%=      5-min Rain = 0
KMC5 142344Z 07003KT 10/M02 A3036 RMK A01 T00951021  RH  044%=      5-min Rain = 0
KMC5 142345Z 08003KT 09/M02 A3036 RMK A01 T00941021  RH  044%=      5-min Rain = 0
KMC5 142346Z 08003KT 09/M02 A3036 RMK A01 T00941021  RH  044%=      5-min Rain = 0
KMC5 142347Z 08003KT 09/M02 A3036 RMK A01 T00941021  RH  044%=      5-min Rain = 0
KMC5 142348Z 08003KT 09/M02 A3036 RMK A01 T00941021  RH  044%=      5-min Rain = 0
KMC5 142349Z 08003KT 09/M02 A3036 RMK A01 T00941021  RH  044%=      5-min Rain = 0
KMC5 142350Z 08003KT 09/M02 A3036 RMK A01 T00941021  RH  044%=      5-min Rain = 0
KMC5 142351Z 08003KT 09/M02 A3036 RMK A01 T00941021  RH  044%=      5-min Rain = 0
KMC5 142352Z 08003KT 09/M02 A3036 RMK A01 T00941021  RH  044%=      5-min Rain = 0
KMC5 142353Z 09003KT 09/M02 A3036 RMK A01 T00941021  RH  044%=      5-min Rain = 0
KMC5 142354Z 09003KT 10/M02 A3036 RMK A01 T00951021  RH  044%=      5-min Rain = 0
KMC5 142355Z 09004KT 10/M02 A3037 RMK A01 T00951021  RH  044%=      5-min Rain = 0
KMC5 142356Z 09004KT 10/M02 A3037 RMK A01 T00951021  RH  044%=      5-min Rain = 0
KMC5 142357Z 09004KT 10/M02 A3037 RMK A01 T00951021  RH  044%=      5-min Rain = 0
KMC5 142358Z 09004KT 09/M02 A3037 RMK A01 T00941021  RH  044%=      5-min Rain = 0
KMC5 142359Z 09004KT 09/M02 A3037 RMK A01 T00941022  RH  044%=      5-min Rain = 0
KMC5 150000Z 10004KT 09/M02 A3037 RMK A01 T00931022  RH  045%=      5-min Rain = 0
KMC5 150001Z 10004KT 09/M02 A3037 RMK A01 T00931022  RH  045%=      5-min Rain = 0
KMC5 150002Z 10004KT 09/M02 A3037 RMK A01 T00921022  RH  045%=      5-min Rain = 0
KMC5 150003Z 10004KT 09/M02 A3037 RMK A01 T00901023  RH  045%=      5-min Rain = 0
KMC5 150004Z 10004KT 09/M02 A3037 RMK A01 T00871024  RH  046%=      5-min Rain = 0
KMC5 150005Z 10004KT 09/M02 A3037 RMK A01 T00851024  RH  046%=      5-min Rain = 0
KMC5 150006Z 10004KT 08/M02 A3037 RMK A01 T00841023  RH  047%=      5-min Rain = 0
KMC5 150007Z 10004KT 08/M02 A3037 RMK A01 T00831023  RH  047%=      5-min Rain = 0
KMC5 150008Z 11004KT 08/M02 A3037 RMK A01 T00831023  RH  047%=      5-min Rain = 0
KMC5 150009Z 11004KT 08/M02 A3037 RMK A01 T00821023  RH  047%=      5-min Rain = 0
KMC5 150010Z 11004KT 08/M02 A3037 RMK A01 T00831023  RH  047%=      5-min Rain = 0
KMC5 150011Z 11004KT 08/M02 A3037 RMK A01 T00821023  RH  047%=      5-min Rain = 0
KMC5 150012Z 11004KT 08/M02 A3037 RMK A01 T00821022  RH  048%=      5-min Rain = 0
KMC5 150013Z 11004KT 08/M02 A3037 RMK A01 T00821022  RH  048%=      5-min Rain = 0
KMC5 150014Z 11004KT 08/M02 A3037 RMK A01 T00831022  RH  048%=      5-min Rain = 0
KMC5 150015Z 11004KT 08/M02 A3037 RMK A01 T00831022  RH  048%=      5-min Rain = 0
KMC5 150016Z 11003KT 08/M02 A3037 RMK A01 T00841022  RH  048%=      5-min Rain = 0
KMC5 150017Z 12003KT 08/M02 A3037 RMK A01 T00831022  RH  047%=      5-min Rain = 0
KMC5 150018Z 12003KT 08/M02 A3038 RMK A01 T00831022  RH  048%=      5-min Rain = 0
KMC5 150019Z 12003KT 08/M02 A3038 RMK A01 T00831022  RH  048%=      5-min Rain = 0
KMC5 150020Z 13002KT 08/M02 A3038 RMK A01 T00831022  RH  048%=      5-min Rain = 0
KMC5 150021Z 13003KT 08/M02 A3038 RMK A01 T00831022  RH  048%=      5-min Rain = 0
KMC5 150022Z 13003KT 08/M02 A3038 RMK A01 T00831022  RH  048%=      5-min Rain = 0
KMC5 150023Z 12003KT 08/M02 A3038 RMK A01 T00831021  RH  048%=      5-min Rain = 0
KMC5 150024Z 12003KT 08/M02 A3038 RMK A01 T00841021  RH  048%=      5-min Rain = 0
KMC5 150025Z 12003KT 08/M02 A3038 RMK A01 T00841021  RH  047%=      5-min Rain = 0
KMC5 150026Z 12003KT 08/M02 A3038 RMK A01 T00841022  RH  047%=      5-min Rain = 0
KMC5 150027Z 12003KT 08/M02 A3038 RMK A01 T00841022  RH  047%=      5-min Rain = 0
KMC5 150028Z 12003KT 08/M02 A3038 RMK A01 T00841021  RH  047%=      5-min Rain = 0
KMC5 150029Z 12003KT 08/M02 A3038 RMK A01 T00841021  RH  047%=      5-min Rain = 0
KMC5 150030Z 12003KT 08/M02 A3038 RMK A01 T00841021  RH  047%=      5-min Rain = 0
KMC5 150031Z 12003KT 08/M02 A3038 RMK A01 T00841021  RH  047%=      5-min Rain = 0
KMC5 150032Z 12003KT 08/M02 A3038 RMK A01 T00831022  RH  048%=      5-min Rain = 0
KMC5 150033Z 12003KT 08/M02 A3038 RMK A01 T00831021  RH  048%=      5-min Rain = 0
KMC5 150034Z 13003KT 08/M02 A3038 RMK A01 T00831022  RH  048%=      5-min Rain = 0
KMC5 150035Z 13003KT 08/M02 A3038 RMK A01 T00831022  RH  048%=      5-min Rain = 0
KMC5 150036Z 12003KT 08/M02 A3038 RMK A01 T00821022  RH  048%=      5-min Rain = 0
KMC5 150037Z 12003KT 08/M02 A3038 RMK A01 T00821022  RH  048%=      5-min Rain = 0
KMC5 150038Z 12003KT 08/M02 A3038 RMK A01 T00811022  RH  048%=      5-min Rain = 0
KMC5 150039Z 12004KT 08/M02 A3038 RMK A01 T00811022  RH  048%=      5-min Rain = 0
KMC5 150040Z 12003KT 08/M02 A3038 RMK A01 T00811022  RH  048%=      5-min Rain = 0
KMC5 150041Z 12003KT 08/M02 A3038 RMK A01 T00811022  RH  048%=      5-min Rain = 0
KMC5 150042Z 12003KT 08/M02 A3038 RMK A01 T00811022  RH  049%=      5-min Rain = 0
KMC5 150043Z 11003KT 08/M02 A3038 RMK A01 T00801022  RH  049%=      5-min Rain = 0
KMC5 150044Z 11004KT 08/M02 A3038 RMK A01 T00801021  RH  049%=      5-min Rain = 0
KMC5 150045Z 11004KT 08/M02 A3038 RMK A01 T00801021  RH  049%=      5-min Rain = 0
KMC5 150046Z 11004KT 08/M02 A3038 RMK A01 T00801021  RH  049%=      5-min Rain = 0
KMC5 150047Z 12004KT 08/M02 A3038 RMK A01 T00801021  RH  049%=      5-min Rain = 0
KMC5 150048Z 12004KT 08/M02 A3038 RMK A01 T00811021  RH  049%=      5-min Rain = 0
KMC5 150049Z 12004KT 08/M02 A3038 RMK A01 T00811022  RH  048%=      5-min Rain = 0
KMC5 150050Z 13004KT 08/M02 A3038 RMK A01 T00811022  RH  048%=      5-min Rain = 0
KMC5 150051Z 13003KT 08/M02 A3038 RMK A01 T00811022  RH  048%=      5-min Rain = 0
KMC5 150052Z 13004KT 08/M02 A3039 RMK A01 T00801022  RH  049%=      5-min Rain = 0
KMC5 150053Z 13004KT 08/M02 A3039 RMK A01 T00801022  RH  049%=      5-min Rain = 0
KMC5 150054Z 14004KT 08/M02 A3039 RMK A01 T00801022  RH  049%=      5-min Rain = 0
KMC5 150055Z 15004KT 08/M02 A3039 RMK A01 T00791022  RH  049%=      5-min Rain = 0
KMC5 150056Z 15004KT 08/M02 A3039 RMK A01 T00781023  RH  049%=      5-min Rain = 0
KMC5 150057Z 16004KT 08/M02 A3039 RMK A01 T00771023  RH  049%=      5-min Rain = 0
KMC5 150058Z 17004KT 08/M02 A3039 RMK A01 T00761022  RH  050%=      5-min Rain = 0
KMC5 150059Z 17003KT 08/M02 A3039 RMK A01 T00771022  RH  050%=      5-min Rain = 0
KMC5 150100Z 18003KT 08/M02 A3039 RMK A01 T00761022  RH  050%=      5-min Rain = 0
KMC5 150101Z 17003KT 08/M02 A3039 RMK A01 T00761022  RH  050%=      5-min Rain = 0
KMC5 150102Z 18003KT 07/M02 A3039 RMK A01 T00741023  RH  050%=      5-min Rain = 0
KMC5 150103Z 17003KT 07/M02 A3039 RMK A01 T00721024  RH  050%=      5-min Rain = 0
KMC5 150104Z 18003KT 07/M02 A3039 RMK A01 T00701024  RH  051%=      5-min Rain = 0
KMC5 150105Z 18003KT 07/M03 A3039 RMK A01 T00671025  RH  052%=      5-min Rain = 0
KMC5 150106Z 18003KT 07/M03 A3039 RMK A01 T00651025  RH  053%=      5-min Rain = 0
KMC5 150107Z 18003KT 06/M02 A3039 RMK A01 T00631024  RH  053%=      5-min Rain = 0
KMC5 150108Z 18003KT 06/M02 A3039 RMK A01 T00631024  RH  054%=      5-min Rain = 0
KMC5 150109Z 18002KT 06/M02 A3039 RMK A01 T00621024  RH  054%=      5-min Rain = 0
KMC5 150110Z 18003KT 06/M02 A3039 RMK A01 T00621024  RH  054%=      5-min Rain = 0
KMC5 150111Z 18003KT 06/M02 A3039 RMK A01 T00621024  RH  054%=      5-min Rain = 0
KMC5 150112Z 16003KT 06/M02 A3039 RMK A01 T00631023  RH  054%=      5-min Rain = 0
KMC5 150113Z 17003KT 06/M02 A3039 RMK A01 T00641023  RH  054%=      5-min Rain = 0
KMC5 150114Z 16003KT 07/M02 A3039 RMK A01 T00651023  RH  054%=      5-min Rain = 0
KMC5 150115Z 16002KT 07/M02 A3039 RMK A01 T00671022  RH  053%=      5-min Rain = 0
KMC5 150116Z 18002KT 07/M02 A304 RMK A01 T00681022  RH  053%=      5-min Rain = 0
KMC5 150117Z 17003KT 07/M02 A304 RMK A01 T00701021  RH  052%=      5-min Rain = 0
KMC5 150118Z 18002KT 07/M02 A304 RMK A01 T00721021  RH  052%=      5-min Rain = 0
KMC5 150119Z 17003KT 07/M02 A304 RMK A01 T00731021  RH  051%=      5-min Rain = 0
KMC5 150120Z 16004KT 07/M02 A304 RMK A01 T00731021  RH  051%=      5-min Rain = 0
KMC5 150121Z 16004KT 07/M02 A304 RMK A01 T00731022  RH  051%=      5-min Rain = 0
KMC5 150122Z 16004KT 07/M02 A304 RMK A01 T00731021  RH  051%=      5-min Rain = 0
KMC5 150123Z 17003KT 07/M02 A304 RMK A01 T00741021  RH  051%=      5-min Rain = 0
KMC5 150124Z 16004KT 07/M02 A304 RMK A01 T00741021  RH  051%=      5-min Rain = 0
KMC5 150125Z 16004KT 07/M02 A304 RMK A01 T00731021  RH  051%=      5-min Rain = 0
KMC5 150126Z 17005KT 07/M02 A304 RMK A01 T00721022  RH  051%=      5-min Rain = 0
KMC5 150127Z 17005KT 07/M02 A304 RMK A01 T00721022  RH  051%=      5-min Rain = 0
KMC5 150128Z 17005KT 07/M02 A304 RMK A01 T00721021  RH  052%=      5-min Rain = 0
KMC5 150129Z 17005KT 07/M02 A304 RMK A01 T00721021  RH  052%=      5-min Rain = 0
KMC5 150130Z 18005KT 07/M02 A304 RMK A01 T00721021  RH  052%=      5-min Rain = 0
KMC5 150131Z 19005KT 07/M02 A304 RMK A01 T00721021  RH  051%=      5-min Rain = 0
KMC5 150132Z 19005KT 07/M02 A304 RMK A01 T00721022  RH  051%=      5-min Rain = 0
KMC5 150133Z 19005KT 07/M02 A304 RMK A01 T00701023  RH  052%=      5-min Rain = 0
KMC5 150134Z 19005KT 07/M02 A304 RMK A01 T00681022  RH  052%=      5-min Rain = 0
KMC5 150135Z 19005KT 07/M02 A304 RMK A01 T00671022  RH  053%=      5-min Rain = 0
KMC5 150136Z 19005KT 07/M02 A304 RMK A01 T00671022  RH  053%=      5-min Rain = 0
KMC5 150137Z 19004KT 07/M02 A304 RMK A01 T00671022  RH  053%=      5-min Rain = 0
KMC5 150138Z 19004KT 07/M02 A304 RMK A01 T00661023  RH  053%=      5-min Rain = 0
KMC5 150139Z 19004KT 06/M02 A304 RMK A01 T00641023  RH  053%=      5-min Rain = 0
KMC5 150140Z 19004KT 06/M02 A304 RMK A01 T00641023  RH  054%=      5-min Rain = 0
KMC5 150141Z 19004KT 06/M02 A304 RMK A01 T00641023  RH  054%=      5-min Rain = 0
KMC5 150142Z 18004KT 06/M02 A304 RMK A01 T00641023  RH  054%=      5-min Rain = 0
KMC5 150143Z 18004KT 06/M02 A304 RMK A01 T00641023  RH  054%=      5-min Rain = 0
KMC5 150144Z 18004KT 07/M02 A304 RMK A01 T00651022  RH  054%=      5-min Rain = 0
KMC5 150145Z 18005KT 07/M02 A304 RMK A01 T00661022  RH  053%=      5-min Rain = 0
KMC5 150146Z 18005KT 07/M02 A304 RMK A01 T00661023  RH  053%=      5-min Rain = 0
KMC5 150147Z 18005KT 07/M02 A304 RMK A01 T00661023  RH  053%=      5-min Rain = 0
KMC5 150148Z 18005KT 07/M02 A304 RMK A01 T00661023  RH  053%=      5-min Rain = 0
KMC5 150149Z 18005KT 07/M02 A304 RMK A01 T00661022  RH  053%=      5-min Rain = 0
KMC5 150150Z 19005KT 07/M02 A304 RMK A01 T00671022  RH  053%=      5-min Rain = 0
KMC5 150151Z 19005KT 07/M02 A304 RMK A01 T00671022  RH  053%=      5-min Rain = 0
KMC5 150152Z 19004KT 07/M02 A304 RMK A01 T00681022  RH  053%=      5-min Rain = 0
KMC5 150153Z 19004KT 07/M02 A304 RMK A01 T00681022  RH  052%=      5-min Rain = 0
KMC5 150154Z 19004KT 07/M02 A304 RMK A01 T00681022  RH  053%=      5-min Rain = 0
KMC5 150155Z 19004KT 07/M02 A304 RMK A01 T00671022  RH  053%=      5-min Rain = 0
KMC5 150156Z 18004KT 07/M02 A304 RMK A01 T00671022  RH  053%=      5-min Rain = 0
KMC5 150157Z 18004KT 07/M02 A304 RMK A01 T00671023  RH  053%=      5-min Rain = 0
KMC5 150158Z 18004KT 07/M02 A304 RMK A01 T00681023  RH  053%=      5-min Rain = 0
KMC5 150159Z 17004KT 07/M02 A304 RMK A01 T00681022  RH  052%=      5-min Rain = 0
KMC5 150200Z 17004KT 07/M02 A304 RMK A01 T00681022  RH  052%=      5-min Rain = 0
KMC5 150201Z 17005KT 07/M02 A304 RMK A01 T00691022  RH  052%=      5-min Rain = 0
KMC5 150202Z 16004KT 07/M02 A304 RMK A01 T00701022  RH  052%=      5-min Rain = 0
KMC5 150203Z 16005KT 07/M02 A304 RMK A01 T00701022  RH  052%=      5-min Rain = 0
KMC5 150204Z 16005KT 07/M02 A304 RMK A01 T00701022  RH  052%=      5-min Rain = 0
KMC5 150205Z 16005KT 07/M02 A304 RMK A01 T00691023  RH  052%=      5-min Rain = 0
KMC5 150206Z 16005KT 07/M02 A304 RMK A01 T00701022  RH  052%=      5-min Rain = 0
KMC5 150207Z 16005KT 07/M02 A304 RMK A01 T00701022  RH  052%=      5-min Rain = 0
KMC5 150208Z 16005KT 07/M02 A304 RMK A01 T00691023  RH  052%=      5-min Rain = 0
KMC5 150209Z 16005KT 07/M02 A304 RMK A01 T00681023  RH  052%=      5-min Rain = 0
KMC5 150210Z 16005KT 07/M02 A304 RMK A01 T00691023  RH  052%=      5-min Rain = 0
KMC5 150211Z 16005KT 07/M02 A304 RMK A01 T00681023  RH  052%=      5-min Rain = 0
KMC5 150212Z 16005KT 07/M02 A304 RMK A01 T00681023  RH  052%=      5-min Rain = 0
KMC5 150213Z 16005KT 07/M02 A304 RMK A01 T00681023  RH  052%=      5-min Rain = 0
KMC5 150214Z 16005KT 07/M02 A304 RMK A01 T00681023  RH  052%=      5-min Rain = 0
KMC5 150215Z 16005KT 07/M02 A304 RMK A01 T00681023  RH  052%=      5-min Rain = 0
KMC5 150216Z 15005KT 07/M02 A304 RMK A01 T00691023  RH  052%=      5-min Rain = 0
KMC5 150217Z 15005KT 07/M02 A304 RMK A01 T00691023  RH  052%=      5-min Rain = 0
KMC5 150218Z 15005KT 07/M02 A304 RMK A01 T00681024  RH  052%=      5-min Rain = 0
KMC5 150219Z 14005KT 07/M02 A304 RMK A01 T00671024  RH  052%=      5-min Rain = 0
KMC5 150220Z 14004KT 07/M02 A304 RMK A01 T00661024  RH  053%=      5-min Rain = 0
KMC5 150221Z 13004KT 07/M02 A304 RMK A01 T00651024  RH  053%=      5-min Rain = 0
KMC5 150222Z 13004KT 06/M02 A304 RMK A01 T00641024  RH  053%=      5-min Rain = 0
KMC5 150223Z 13004KT 06/M02 A304 RMK A01 T00631024  RH  054%=      5-min Rain = 0
KMC5 150224Z 14004KT 06/M02 A304 RMK A01 T00621024  RH  054%=      5-min Rain = 0
KMC5 150225Z 14004KT 06/M02 A304 RMK A01 T00621024  RH  054%=      5-min Rain = 0
KMC5 150226Z 15004KT 06/M02 A304 RMK A01 T00621024  RH  054%=      5-min Rain = 0
KMC5 150227Z 15005KT 06/M02 A304 RMK A01 T00631023  RH  054%=      5-min Rain = 0
KMC5 150228Z 16005KT 06/M02 A304 RMK A01 T00621023  RH  054%=      5-min Rain = 0
KMC5 150229Z 17005KT 06/M02 A304 RMK A01 T00631023  RH  054%=      5-min Rain = 0
KMC5 150230Z 17005KT 06/M02 A304 RMK A01 T00641023  RH  054%=      5-min Rain = 0
KMC5 150231Z 17005KT 06/M02 A304 RMK A01 T00641023  RH  054%=      5-min Rain = 0
KMC5 150232Z 17005KT 06/M02 A304 RMK A01 T00641023  RH  054%=      5-min Rain = 0
KMC5 150233Z 17005KT 07/M02 A304 RMK A01 T00651023  RH  053%=      5-min Rain = 0
KMC5 150234Z 17005KT 07/M02 A304 RMK A01 T00651023  RH  053%=      5-min Rain = 0
KMC5 150235Z 16005KT 07/M02 A304 RMK A01 T00651023  RH  053%=      5-min Rain = 0
KMC5 150236Z 16005KT 07/M02 A304 RMK A01 T00651023  RH  053%=      5-min Rain = 0
KMC5 150237Z 16005KT 07/M02 A304 RMK A01 T00651023  RH  053%=      5-min Rain = 0
KMC5 150238Z 16005KT 07/M02 A304 RMK A01 T00651023  RH  053%=      5-min Rain = 0
KMC5 150239Z 16005KT 07/M02 A304 RMK A01 T00651023  RH  053%=      5-min Rain = 0
KMC5 150240Z 16005KT 06/M02 A304 RMK A01 T00641024  RH  053%=      5-min Rain = 0
KMC5 150241Z 16005KT 06/M02 A304 RMK A01 T00641024  RH  053%=      5-min Rain = 0
KMC5 150242Z 16005KT 06/M02 A304 RMK A01 T00641024  RH  054%=      5-min Rain = 0
KMC5 150243Z 16005KT 06/M02 A3041 RMK A01 T00631023  RH  054%=      5-min Rain = 0
KMC5 150244Z 17005KT 06/M02 A3041 RMK A01 T00631023  RH  054%=      5-min Rain = 0
KMC5 150245Z 17005KT 06/M02 A3041 RMK A01 T00631023  RH  054%=      5-min Rain = 0
KMC5 150246Z 17005KT 06/M02 A3041 RMK A01 T00641023  RH  054%=      5-min Rain = 0
KMC5 150247Z 18005KT 06/M02 A3041 RMK A01 T00641023  RH  054%=      5-min Rain = 0
KMC5 150248Z 18005KT 07/M02 A3041 RMK A01 T00651023  RH  053%=      5-min Rain = 0
KMC5 150249Z 19005KT 07/M02 A3041 RMK A01 T00651023  RH  053%=      5-min Rain = 0
KMC5 150250Z 20005KT 07/M02 A3041 RMK A01 T00651023  RH  053%=      5-min Rain = 0
KMC5 150251Z 20004KT 06/M02 A3041 RMK A01 T00631024  RH  053%=      5-min Rain = 0
KMC5 150252Z 20004KT 06/M03 A3041 RMK A01 T00591026  RH  054%=      5-min Rain = 0
KMC5 150253Z 21004KT 06/M03 A3041 RMK A01 T00561026  RH  056%=      5-min Rain = 0
KMC5 150254Z 20004KT 05/M03 A3041 RMK A01 T00541026  RH  057%=      5-min Rain = 0
KMC5 150255Z 20004KT 05/M03 A3041 RMK A01 T00531025  RH  057%=      5-min Rain = 0
KMC5 150256Z 20004KT 05/M03 A3041 RMK A01 T00531025  RH  057%=      5-min Rain = 0
KMC5 150257Z 20004KT 06/M02 A3041 RMK A01 T00551024  RH  057%=      5-min Rain = 0
KMC5 150258Z 20004KT 06/M02 A3041 RMK A01 T00561024  RH  057%=      5-min Rain = 0
KMC5 150259Z 20004KT 06/M02 A3041 RMK A01 T00571024  RH  056%=      5-min Rain = 0
KMC5 150300Z 20004KT 06/M02 A3041 RMK A01 T00581024  RH  056%=      5-min Rain = 0
KMC5 150301Z 19004KT 06/M02 A3041 RMK A01 T00581024  RH  056%=      5-min Rain = 0
KMC5 150302Z 19004KT 06/M02 A3041 RMK A01 T00601023  RH  055%=      5-min Rain = 0
KMC5 150303Z 20004KT 06/M02 A3041 RMK A01 T00611023  RH  055%=      5-min Rain = 0
KMC5 150304Z 20004KT 06/M02 A3041 RMK A01 T00611024  RH  055%=      5-min Rain = 0
KMC5 150305Z 20004KT 06/M02 A3041 RMK A01 T00601024  RH  055%=      5-min Rain = 0
KMC5 150306Z 20004KT 06/M02 A3041 RMK A01 T00591024  RH  055%=      5-min Rain = 0
KMC5 150307Z 20004KT 06/M02 A3041 RMK A01 T00581024  RH  055%=      5-min Rain = 0
KMC5 150308Z 20005KT 06/M02 A3041 RMK A01 T00581024  RH  056%=      5-min Rain = 0
KMC5 150309Z 21004KT 06/M02 A3041 RMK A01 T00581024  RH  056%=      5-min Rain = 0
KMC5 150310Z 20004KT 06/M02 A3041 RMK A01 T00591023  RH  055%=      5-min Rain = 0
KMC5 150311Z 20004KT 06/M02 A3041 RMK A01 T00591024  RH  055%=      5-min Rain = 0
KMC5 150312Z 20003KT 06/M02 A3041 RMK A01 T00601024  RH  055%=      5-min Rain = 0
KMC5 150313Z 19004KT 06/M02 A3041 RMK A01 T00601024  RH  055%=      5-min Rain = 0
KMC5 150314Z 19005KT 06/M02 A3041 RMK A01 T00601024  RH  055%=      5-min Rain = 0
KMC5 150315Z 19005KT 06/M02 A3041 RMK A01 T00601024  RH  055%=      5-min Rain = 0
KMC5 150316Z 19005KT 06/M02 A3041 RMK A01 T00591024  RH  055%=      5-min Rain = 0
KMC5 150317Z 20004KT 06/M02 A3041 RMK A01 T00591024  RH  055%=      5-min Rain = 0
KMC5 150318Z 20005KT 06/M02 A3041 RMK A01 T00591024  RH  055%=      5-min Rain = 0
KMC5 150319Z 20005KT 06/M02 A3041 RMK A01 T00591024  RH  055%=      5-min Rain = 0
KMC5 150320Z 20005KT 06/M02 A3041 RMK A01 T00581024  RH  056%=      5-min Rain = 0
KMC5 150321Z 21005KT 06/M02 A3041 RMK A01 T00581024  RH  056%=      5-min Rain = 0
KMC5 150322Z 20005KT 06/M02 A3041 RMK A01 T00581024  RH  056%=      5-min Rain = 0
KMC5 150323Z 20004KT 06/M02 A3041 RMK A01 T00571024  RH  056%=      5-min Rain = 0
KMC5 150324Z 20004KT 06/M02 A3041 RMK A01 T00561024  RH  056%=      5-min Rain = 0
KMC5 150325Z 20004KT 06/M02 A3041 RMK A01 T00561024  RH  056%=      5-min Rain = 0
KMC5 150326Z 20004KT 06/M02 A3041 RMK A01 T00561024  RH  056%=      5-min Rain = 0
KMC5 150327Z 20004KT 06/M03 A3041 RMK A01 T00551025  RH  056%=      5-min Rain = 0
KMC5 150328Z 19004KT 05/M03 A3041 RMK A01 T00541025  RH  057%=      5-min Rain = 0
KMC5 150329Z 18005KT 05/M03 A3041 RMK A01 T00541025  RH  057%=      5-min Rain = 0
KMC5 150330Z 18005KT 05/M03 A3041 RMK A01 T00531025  RH  057%=      5-min Rain = 0
KMC5 150331Z 18005KT 05/M03 A3041 RMK A01 T00541025  RH  057%=      5-min Rain = 0
KMC5 150332Z 18005KT 05/M03 A3041 RMK A01 T00541025  RH  057%=      5-min Rain = 0
KMC5 150333Z 19005KT 05/M03 A3041 RMK A01 T00541025  RH  057%=      5-min Rain = 0
KMC5 150334Z 18005KT 05/M03 A3041 RMK A01 T00541025  RH  057%=      5-min Rain = 0
KMC5 150335Z 19005KT 05/M02 A3041 RMK A01 T00541024  RH  057%=      5-min Rain = 0
KMC5 150336Z 19005KT 05/M03 A3041 RMK A01 T00541025  RH  057%=      5-min Rain = 0
KMC5 150337Z 20005KT 05/M03 A3041 RMK A01 T00541025  RH  057%=      5-min Rain = 0
KMC5 150338Z 20005KT 05/M03 A3041 RMK A01 T00541025  RH  057%=      5-min Rain = 0
KMC5 150339Z 20005KT 05/M03 A3041 RMK A01 T00541025  RH  057%=      5-min Rain = 0
KMC5 150340Z 21005KT 05/M03 A3041 RMK A01 T00531025  RH  057%=      5-min Rain = 0
KMC5 150341Z 21005KT 05/M03 A3041 RMK A01 T00531025  RH  057%=      5-min Rain = 0
KMC5 150342Z 22005KT 05/M03 A3041 RMK A01 T00521025  RH  058%=      5-min Rain = 0
KMC5 150343Z 23006KT 05/M03 A3041 RMK A01 T00501025  RH  058%=      5-min Rain = 0
KMC5 150344Z 22006KT 05/M03 A3041 RMK A01 T00461027  RH  059%=      5-min Rain = 0
KMC5 150345Z 21006KT 04/M03 A3041 RMK A01 T00421028  RH  060%=      5-min Rain = 0
KMC5 150346Z 21006KT 04/M03 A3041 RMK A01 T00411027  RH  061%=      5-min Rain = 0
KMC5 150347Z 21007KT 04/M03 A3041 RMK A01 T00421026  RH  061%=      5-min Rain = 0
KMC5 150348Z 21006KT 04/M03 A3041 RMK A01 T00431025  RH  061%=      5-min Rain = 0
KMC5 150349Z 22006KT 04/M03 A3041 RMK A01 T00431026  RH  061%=      5-min Rain = 0
KMC5 150350Z 22005KT 04/M03 A3041 RMK A01 T00411027  RH  061%=      5-min Rain = 0
KMC5 150351Z 21005KT 04/M03 A3041 RMK A01 T00411026  RH  062%=      5-min Rain = 0
KMC5 150352Z 21005KT 04/M03 A3041 RMK A01 T00421026  RH  061%=      5-min Rain = 0
KMC5 150353Z 21005KT 04/M03 A3041 RMK A01 T00431025  RH  061%=      5-min Rain = 0
KMC5 150354Z 21005KT 04/M03 A3041 RMK A01 T00431026  RH  061%=      5-min Rain = 0
KMC5 150355Z 21005KT 04/M03 A3041 RMK A01 T00441026  RH  061%=      5-min Rain = 0
KMC5 150356Z 21005KT 04/M03 A3041 RMK A01 T00431026  RH  061%=      5-min Rain = 0
KMC5 150357Z 21005KT 04/M03 A3041 RMK A01 T00431026  RH  061%=      5-min Rain = 0
KMC5 150358Z 21005KT 04/M03 A3041 RMK A01 T00421026  RH  061%=      5-min Rain = 0
KMC5 150359Z 21005KT 04/M03 A3041 RMK A01 T00431025  RH  061%=      5-min Rain = 0
KMC5 150400Z 20005KT 05/M03 A3041 RMK A01 T00451025  RH  060%=      5-min Rain = 0
KMC5 150401Z 20006KT 05/M03 A3041 RMK A01 T00471025  RH  060%=      5-min Rain = 0
KMC5 150402Z 20006KT 05/M03 A3041 RMK A01 T00491025  RH  059%=      5-min Rain = 0
KMC5 150403Z 21006KT 05/M03 A3041 RMK A01 T00501025  RH  058%=      5-min Rain = 0
KMC5 150404Z 21005KT 05/M03 A3041 RMK A01 T00501025  RH  058%=      5-min Rain = 0
KMC5 150405Z 21005KT 05/M03 A3041 RMK A01 T00481026  RH  059%=      5-min Rain = 0
KMC5 150406Z 21005KT 05/M03 A3041 RMK A01 T00471026  RH  059%=      5-min Rain = 0
KMC5 150407Z 21006KT 05/M03 A3041 RMK A01 T00461026  RH  059%=      5-min Rain = 0
KMC5 150408Z 21006KT 05/M03 A3041 RMK A01 T00471026  RH  059%=      5-min Rain = 0
KMC5 150409Z 21006KT 05/M03 A3041 RMK A01 T00481026  RH  059%=      5-min Rain = 0
KMC5 150410Z 21006KT 05/M03 A3041 RMK A01 T00471026  RH  059%=      5-min Rain = 0
KMC5 150411Z 22005KT 05/M03 A3041 RMK A01 T00471026  RH  059%=      5-min Rain = 0
KMC5 150412Z 22005KT 05/M03 A3041 RMK A01 T00461026  RH  059%=      5-min Rain = 0
KMC5 150413Z 22005KT 05/M03 A3041 RMK A01 T00461026  RH  060%=      5-min Rain = 0
KMC5 150414Z 23005KT 05/M03 A3041 RMK A01 T00461026  RH  060%=      5-min Rain = 0
KMC5 150415Z 23005KT 04/M03 A3041 RMK A01 T00441027  RH  060%=      5-min Rain = 0
KMC5 150416Z 22005KT 04/M03 A3041 RMK A01 T00431027  RH  060%=      5-min Rain = 0
KMC5 150417Z 22004KT 04/M03 A3041 RMK A01 T00431027  RH  061%=      5-min Rain = 0
KMC5 150418Z 21005KT 04/M03 A3041 RMK A01 T00431026  RH  061%=      5-min Rain = 0
KMC5 150419Z 22005KT 04/M03 A3041 RMK A01 T00431026  RH  061%=      5-min Rain = 0
KMC5 150420Z 22005KT 04/M03 A3041 RMK A01 T00431026  RH  061%=      5-min Rain = 0
KMC5 150421Z 22005KT 04/M03 A3041 RMK A01 T00431027  RH  061%=      5-min Rain = 0
KMC5 150422Z 22005KT 04/M03 A3041 RMK A01 T00431027  RH  061%=      5-min Rain = 0
KMC5 150423Z 22005KT 04/M03 A3041 RMK A01 T00431027  RH  060%=      5-min Rain = 0
KMC5 150424Z 22005KT 04/M03 A3041 RMK A01 T00431027  RH  060%=      5-min Rain = 0
KMC5 150425Z 22005KT 04/M03 A3041 RMK A01 T00411027  RH  061%=      5-min Rain = 0
KMC5 150426Z 22005KT 04/M03 A3041 RMK A01 T00411027  RH  061%=      5-min Rain = 0
KMC5 150427Z 21005KT 04/M03 A3041 RMK A01 T00411027  RH  061%=      5-min Rain = 0
KMC5 150428Z 21005KT 04/M03 A3041 RMK A01 T00411027  RH  061%=      5-min Rain = 0
KMC5 150429Z 21005KT 04/M03 A3041 RMK A01 T00401027  RH  062%=      5-min Rain = 0
KMC5 150430Z 21006KT 04/M03 A3041 RMK A01 T00401026  RH  062%=      5-min Rain = 0
KMC5 150431Z 21005KT 04/M03 A3041 RMK A01 T00411025  RH  062%=      5-min Rain = 0
KMC5 150432Z 21006KT 04/M03 A3041 RMK A01 T00411026  RH  062%=      5-min Rain = 0
KMC5 150433Z 21006KT 04/M03 A3041 RMK A01 T00411026  RH  062%=      5-min Rain = 0
KMC5 150434Z 21006KT 04/M03 A3041 RMK A01 T00411026  RH  062%=      5-min Rain = 0
KMC5 150435Z 21006KT 04/M03 A3041 RMK A01 T00401026  RH  062%=      5-min Rain = 0
KMC5 150436Z 20006KT 04/M03 A3041 RMK A01 T00391026  RH  062%=      5-min Rain = 0
KMC5 150437Z 20006KT 04/M03 A3041 RMK A01 T00391026  RH  063%=      5-min Rain = 0
KMC5 150438Z 20006KT 04/M03 A3041 RMK A01 T00401025  RH  062%=      5-min Rain = 0
KMC5 150439Z 20007KT 04/M03 A3041 RMK A01 T00411025  RH  062%=      5-min Rain = 0
KMC5 150440Z 20007KT 04/M02 A3041 RMK A01 T00431023  RH  062%=      5-min Rain = 0
KMC5 150441Z 20007KT 04/M02 A3041 RMK A01 T00431024  RH  062%=      5-min Rain = 0
KMC5 150442Z 20008KT 04/M02 A3041 RMK A01 T00431024  RH  062%=      5-min Rain = 0
KMC5 150443Z 20008KT 04/M02 A3041 RMK A01 T00441023  RH  062%=      5-min Rain = 0
KMC5 150444Z 21007KT 04/M02 A3041 RMK A01 T00431024  RH  062%=      5-min Rain = 0
KMC5 150445Z 21007KT 04/M02 A3041 RMK A01 T00431024  RH  062%=      5-min Rain = 0
KMC5 150446Z 21007KT 04/M02 A3041 RMK A01 T00421024  RH  062%=      5-min Rain = 0
KMC5 150447Z 21007KT 04/M02 A3041 RMK A01 T00411024  RH  062%=      5-min Rain = 0
KMC5 150448Z 21007KT 04/M02 A3041 RMK A01 T00421024  RH  062%=      5-min Rain = 0
KMC5 150449Z 21006KT 04/M02 A3041 RMK A01 T00411024  RH  062%=      5-min Rain = 0
KMC5 150450Z 21006KT 04/M02 A3041 RMK A01 T00401024  RH  063%=      5-min Rain = 0
KMC5 150451Z 22006KT 04/M03 A3041 RMK A01 T00391025  RH  063%=      5-min Rain = 0
KMC5 150452Z 22006KT 04/M03 A3041 RMK A01 T00401025  RH  063%=      5-min Rain = 0
KMC5 150453Z 22006KT 04/M03 A3041 RMK A01 T00401025  RH  063%=      5-min Rain = 0
KMC5 150454Z 22006KT 04/M03 A3041 RMK A01 T00401025  RH  062%=      5-min Rain = 0
KMC5 150455Z 22006KT 04/M03 A3041 RMK A01 T00391025  RH  063%=      5-min Rain = 0
KMC5 150456Z 22005KT 04/M03 A3041 RMK A01 T00401025  RH  063%=      5-min Rain = 0
KMC5 150457Z 22005KT 04/M03 A3041 RMK A01 T00381026  RH  063%=      5-min Rain = 0
KMC5 150458Z 22005KT 04/M03 A3041 RMK A01 T00381026  RH  063%=      5-min Rain = 0
KMC5 150459Z 22005KT 04/M03 A3041 RMK A01 T00381026  RH  063%=      5-min Rain = 0
KMC5 150500Z 22005KT 04/M03 A3041 RMK A01 T00381026  RH  063%=      5-min Rain = 0
KMC5 150501Z 23005KT 04/M03 A3041 RMK A01 T00371026  RH  063%=      5-min Rain = 0
KMC5 150502Z 23005KT 04/M03 A3041 RMK A01 T00371026  RH  063%=      5-min Rain = 0
KMC5 150503Z 22005KT 04/M03 A3041 RMK A01 T00371026  RH  063%=      5-min Rain = 0
KMC5 150504Z 22006KT 04/M03 A3041 RMK A01 T00381026  RH  063%=      5-min Rain = 0
KMC5 150505Z 22006KT 04/M03 A3041 RMK A01 T00371025  RH  063%=      5-min Rain = 0
KMC5 150506Z 22006KT 04/M03 A3041 RMK A01 T00381025  RH  063%=      5-min Rain = 0
KMC5 150507Z 22005KT 04/M03 A3041 RMK A01 T00381025  RH  063%=      5-min Rain = 0
KMC5 150508Z 22005KT 04/M03 A3041 RMK A01 T00381025  RH  063%=      5-min Rain = 0
KMC5 150509Z 22006KT 04/M03 A3041 RMK A01 T00381025  RH  063%=      5-min Rain = 0
KMC5 150510Z 22006KT 04/M03 A3041 RMK A01 T00381025  RH  064%=      5-min Rain = 0
KMC5 150511Z 22006KT 04/M03 A3041 RMK A01 T00371025  RH  064%=      5-min Rain = 0
KMC5 150512Z 23006KT 04/M03 A3041 RMK A01 T00361026  RH  064%=      5-min Rain = 0
KMC5 150513Z 23006KT 04/M03 A3041 RMK A01 T00361025  RH  064%=      5-min Rain = 0
KMC5 150514Z 23006KT 04/M03 A3041 RMK A01 T00351026  RH  064%=      5-min Rain = 0
KMC5 150515Z 23005KT 03/M03 A3041 RMK A01 T00341026  RH  065%=      5-min Rain = 0
KMC5 150516Z 23005KT 03/M03 A3041 RMK A01 T00331025  RH  065%=      5-min Rain = 0
KMC5 150517Z 23005KT 03/M03 A3041 RMK A01 T00331025  RH  065%=      5-min Rain = 0
KMC5 150518Z 23005KT 03/M03 A3041 RMK A01 T00341025  RH  065%=      5-min Rain = 0
KMC5 150519Z 23005KT 04/M03 A3041 RMK A01 T00351025  RH  065%=      5-min Rain = 0
KMC5 150520Z 23006KT 04/M03 A3041 RMK A01 T00351025  RH  065%=      5-min Rain = 0
KMC5 150521Z 23006KT 04/M03 A3041 RMK A01 T00351025  RH  065%=      5-min Rain = 0
KMC5 150522Z 23005KT 03/M03 A3041 RMK A01 T00341026  RH  065%=      5-min Rain = 0
KMC5 150523Z 23005KT 03/M03 A3041 RMK A01 T00341026  RH  065%=      5-min Rain = 0
KMC5 150524Z 23005KT 03/M03 A3041 RMK A01 T00331026  RH  065%=      5-min Rain = 0
KMC5 150525Z 23005KT 03/M03 A3041 RMK A01 T00331026  RH  065%=      5-min Rain = 0
KMC5 150526Z 23006KT 03/M03 A3041 RMK A01 T00331026  RH  066%=      5-min Rain = 0
KMC5 150527Z 23006KT 03/M03 A3041 RMK A01 T00331025  RH  066%=      5-min Rain = 0
KMC5 150528Z 23006KT 03/M03 A3041 RMK A01 T00321026  RH  066%=      5-min Rain = 0
KMC5 150529Z 23006KT 03/M03 A3041 RMK A01 T00311026  RH  066%=      5-min Rain = 0
KMC5 150530Z 23006KT 03/M03 A3041 RMK A01 T00301027  RH  066%=      5-min Rain = 0
KMC5 150531Z 23006KT 03/M03 A3041 RMK A01 T00291027  RH  067%=      5-min Rain = 0
KMC5 150532Z 23006KT 03/M03 A3041 RMK A01 T00291027  RH  067%=      5-min Rain = 0
KMC5 150533Z 23006KT 03/M03 A3041 RMK A01 T00281027  RH  067%=      5-min Rain = 0
KMC5 150534Z 23006KT 03/M03 A3041 RMK A01 T00281026  RH  067%=      5-min Rain = 0
KMC5 150535Z 23006KT 03/M03 A3041 RMK A01 T00281026  RH  067%=      5-min Rain = 0
KMC5 150536Z 23006KT 03/M03 A3041 RMK A01 T00281026  RH  067%=      5-min Rain = 0
KMC5 150537Z 23006KT 03/M03 A3041 RMK A01 T00291026  RH  067%=      5-min Rain = 0
KMC5 150538Z 23006KT 03/M03 A3041 RMK A01 T00281026  RH  067%=      5-min Rain = 0
KMC5 150539Z 23006KT 03/M03 A3041 RMK A01 T00281026  RH  067%=      5-min Rain = 0
KMC5 150540Z 23006KT 03/M03 A3041 RMK A01 T00281026  RH  067%=      5-min Rain = 0
KMC5 150541Z 23006KT 03/M03 A3041 RMK A01 T00281026  RH  068%=      5-min Rain = 0
KMC5 150542Z 23006KT 03/M03 A3041 RMK A01 T00281026  RH  068%=      5-min Rain = 0
KMC5 150543Z 23006KT 03/M03 A3041 RMK A01 T00281026  RH  068%=      5-min Rain = 0
KMC5 150544Z 23007KT 03/M03 A3041 RMK A01 T00281026  RH  067%=      5-min Rain = 0
KMC5 150545Z 22006KT 03/M03 A3041 RMK A01 T00271027  RH  068%=      5-min Rain = 0
KMC5 150546Z 22006KT 03/M03 A3041 RMK A01 T00251027  RH  069%=      5-min Rain = 0
KMC5 150547Z 22006KT 03/M03 A3041 RMK A01 T00251026  RH  069%=      5-min Rain = 0
KMC5 150548Z 23006KT 02/M03 A3041 RMK A01 T00241027  RH  069%=      5-min Rain = 0
KMC5 150549Z 23006KT 02/M03 A3041 RMK A01 T00231027  RH  070%=      5-min Rain = 0
KMC5 150550Z 23006KT 02/M03 A3041 RMK A01 T00221027  RH  070%=      5-min Rain = 0
KMC5 150551Z 23006KT 02/M03 A3041 RMK A01 T00221027  RH  070%=      5-min Rain = 0
KMC5 150552Z 23006KT 02/M03 A3041 RMK A01 T00221027  RH  070%=      5-min Rain = 0
KMC5 150553Z 23006KT 02/M03 A3041 RMK A01 T00221027  RH  070%=      5-min Rain = 0
KMC5 150554Z 23006KT 02/M03 A3041 RMK A01 T00221027  RH  070%=      5-min Rain = 0
KMC5 150555Z 23006KT 02/M03 A3041 RMK A01 T00211027  RH  070%=      5-min Rain = 0
KMC5 150556Z 23006KT 02/M03 A3041 RMK A01 T00211027  RH  071%=      5-min Rain = 0
KMC5 150557Z 22006KT 02/M03 A3041 RMK A01 T00201027  RH  071%=      5-min Rain = 0
KMC5 150558Z 22006KT 02/M03 A3041 RMK A01 T00191027  RH  071%=      5-min Rain = 0
KMC5 150559Z 22006KT 02/M03 A3041 RMK A01 T00191026  RH  072%=      5-min Rain = 0

Page generated in 0.0856 seconds.